Time,TemperatureF,DewpointF,PressureIn,WindDirection,WindDirectionDegrees,WindSpeedMPH,WindSpeedGustMPH,Humidity,HourlyPrecipIn,Conditions,Clouds,dailyrainin,SoftwareType,DateUTC
2013-08-25 00:00:00,57.0,50.2,29.86,WSW,242,2.0,2.0,78,0.00,,,0.00,Wunderground v.1.15,2013-08-25 06:00:00,
2013-08-25 00:01:00,57.0,50.2,29.86,WSW,249,2.0,11.0,78,0.00,,,0.00,Wunderground v.1.15,2013-08-25 06:01:00,
2013-08-25 00:02:00,57.0,50.2,29.86,WSW,239,1.0,11.0,78,0.00,,,0.00,Wunderground v.1.15,2013-08-25 06:02:00,
2013-08-25 00:06:00,56.8,50.4,29.86,West,267,2.0,11.0,79,0.00,,,0.00,Wunderground v.1.15,2013-08-25 06:06:00,
2013-08-25 00:08:00,56.8,50.0,29.86,WSW,253,2.0,11.0,78,0.00,,,0.00,Wunderground v.1.15,2013-08-25 06:08:00,
2013-08-25 00:09:00,56.7,49.9,29.86,SW,236,3.0,11.0,78,0.00,,,0.00,Wunderground v.1.15,2013-08-25 06:09:00,
2013-08-25 00:11:00,56.7,49.9,29.86,WSW,246,3.0,11.0,78,0.00,,,0.00,Wunderground v.1.15,2013-08-25 06:11:00,
2013-08-25 00:14:00,56.7,49.9,29.86,West,267,4.0,11.0,78,0.00,,,0.00,Wunderground v.1.15,2013-08-25 06:14:00,
2013-08-25 00:17:00,56.8,50.0,29.86,SW,214,4.0,11.0,78,0.00,,,0.00,Wunderground v.1.15,2013-08-25 06:17:00,
2013-08-25 00:19:00,56.7,49.9,29.86,WSW,239,4.0,11.0,78,0.00,,,0.00,Wunderground v.1.15,2013-08-25 06:19:00,
2013-08-25 00:23:00,56.5,50.1,29.87,SSW,211,3.0,11.0,79,0.00,,,0.00,Wunderground v.1.15,2013-08-25 06:23:00,
2013-08-25 00:25:00,56.3,50.2,29.87,WSW,248,3.0,11.0,80,0.00,,,0.00,Wunderground v.1.15,2013-08-25 06:25:00,
2013-08-25 00:27:00,56.2,50.1,29.87,SW,230,2.0,11.0,80,0.00,,,0.00,Wunderground v.1.15,2013-08-25 06:27:00,
2013-08-25 00:28:00,56.1,50.0,29.87,SSW,198,2.0,11.0,80,0.00,,,0.00,Wunderground v.1.15,2013-08-25 06:28:00,
2013-08-25 00:31:00,55.9,50.2,29.87,SW,236,1.0,11.0,81,0.00,,,0.00,Wunderground v.1.15,2013-08-25 06:31:00,
2013-08-25 00:33:00,55.8,50.4,29.87,WSW,250,1.0,11.0,82,0.00,,,0.00,Wunderground v.1.15,2013-08-25 06:33:00,
2013-08-25 00:34:00,55.7,50.3,29.87,SSW,195,1.0,11.0,82,0.00,,,0.00,Wunderground v.1.15,2013-08-25 06:34:00,
2013-08-25 00:35:00,55.6,50.2,29.87,SSW,195,1.0,11.0,82,0.00,,,0.00,Wunderground v.1.15,2013-08-25 06:35:00,
2013-08-25 00:37:00,55.5,50.1,29.87,SSW,204,2.0,11.0,82,0.00,,,0.00,Wunderground v.1.15,2013-08-25 06:37:00,
2013-08-25 00:40:00,55.4,50.0,29.87,South,187,1.0,11.0,82,0.00,,,0.00,Wunderground v.1.15,2013-08-25 06:40:00,
2013-08-25 00:41:00,55.3,50.2,29.87,SSE,165,1.0,11.0,83,0.00,,,0.00,Wunderground v.1.15,2013-08-25 06:41:00,
2013-08-25 00:45:00,55.1,50.0,29.87,SSW,211,1.0,11.0,83,0.00,,,0.00,Wunderground v.1.15,2013-08-25 06:45:00,
2013-08-25 00:46:00,55.1,50.0,29.87,WSW,246,1.0,11.0,83,0.00,,,0.00,Wunderground v.1.15,2013-08-25 06:46:00,
2013-08-25 00:49:00,55.1,50.0,29.87,WSW,245,1.0,11.0,83,0.00,,,0.00,Wunderground v.1.15,2013-08-25 06:49:00,
2013-08-25 00:52:00,55.2,49.8,29.87,WSW,255,2.0,11.0,82,0.00,,,0.00,Wunderground v.1.15,2013-08-25 06:52:00,
2013-08-25 00:53:00,55.2,49.8,29.87,WSW,255,2.0,11.0,82,0.00,,,0.00,Wunderground v.1.15,2013-08-25 06:53:00,
2013-08-25 00:54:00,55.3,49.9,29.87,SW,236,2.0,11.0,82,0.00,,,0.00,Wunderground v.1.15,2013-08-25 06:54:00,
2013-08-25 00:56:00,55.3,49.9,29.87,WSW,258,2.0,11.0,82,0.00,,,0.00,Wunderground v.1.15,2013-08-25 06:56:00,
2013-08-25 00:57:00,55.3,49.9,29.87,WSW,258,2.0,11.0,82,0.00,,,0.00,Wunderground v.1.15,2013-08-25 06:57:00,
2013-08-25 01:01:00,55.2,49.8,29.87,SSW,201,2.0,2.0,82,0.00,,,0.00,Wunderground v.1.15,2013-08-25 07:01:00,
2013-08-25 01:04:00,55.0,49.6,29.87,South,191,1.0,2.0,82,0.00,,,0.00,Wunderground v.1.15,2013-08-25 07:04:00,
2013-08-25 01:05:00,54.9,49.5,29.87,South,191,0.0,2.0,82,0.00,,,0.00,Wunderground v.1.15,2013-08-25 07:05:00,
2013-08-25 01:07:00,54.7,49.6,29.87,South,188,0.0,2.0,83,0.00,,,0.00,Wunderground v.1.15,2013-08-25 07:07:00,
2013-08-25 01:09:00,54.6,49.5,29.87,SSE,150,0.0,2.0,83,0.00,,,0.00,Wunderground v.1.15,2013-08-25 07:09:00,
2013-08-25 01:10:00,54.6,49.5,29.87,SSE,150,0.0,0.0,83,0.00,,,0.00,Wunderground v.1.15,2013-08-25 07:10:00,
2013-08-25 01:14:00,54.3,49.2,29.87,ESE,112,1.0,2.0,83,0.00,,,0.00,Wunderground v.1.15,2013-08-25 07:14:00,
2013-08-25 01:15:00,54.2,49.1,29.87,South,191,1.0,2.0,83,0.00,,,0.00,Wunderground v.1.15,2013-08-25 07:15:00,
2013-08-25 01:16:00,54.1,49.1,29.87,SW,215,1.0,2.0,83,0.00,,,0.00,Wunderground v.1.15,2013-08-25 07:16:00,
2013-08-25 01:18:00,54.1,49.4,29.87,SE,146,1.0,2.0,84,0.00,,,0.00,Wunderground v.1.15,2013-08-25 07:18:00,
2013-08-25 01:21:00,53.9,49.2,29.87,ESE,121,1.0,1.0,84,0.00,,,0.00,Wunderground v.1.15,2013-08-25 07:21:00,
2013-08-25 01:23:00,53.8,49.1,29.87,SSW,195,1.0,2.0,84,0.00,,,0.00,Wunderground v.1.15,2013-08-25 07:23:00,
2013-08-25 01:24:00,53.8,49.1,29.87,SSW,195,1.0,2.0,84,0.00,,,0.00,Wunderground v.1.15,2013-08-25 07:24:00,
2013-08-25 01:25:00,53.7,49.0,29.87,SW,226,1.0,2.0,84,0.00,,,0.00,Wunderground v.1.15,2013-08-25 07:25:00,
2013-08-25 01:26:00,53.7,49.0,29.87,SW,222,1.0,2.0,84,0.00,,,0.00,Wunderground v.1.15,2013-08-25 07:26:00,
2013-08-25 01:30:00,53.9,48.9,29.86,SW,223,2.0,2.0,83,0.00,,,0.00,Wunderground v.1.15,2013-08-25 07:30:00,
2013-08-25 01:32:00,53.9,48.9,29.87,WSW,242,2.0,2.0,83,0.00,,,0.00,Wunderground v.1.15,2013-08-25 07:32:00,
2013-08-25 01:35:00,53.9,48.9,29.87,SW,231,1.0,2.0,83,0.00,,,0.00,Wunderground v.1.15,2013-08-25 07:35:00,
2013-08-25 01:39:00,53.7,48.3,29.86,SSE,156,0.0,2.0,82,0.00,,,0.00,Wunderground v.1.15,2013-08-25 07:39:00,
2013-08-25 01:42:00,53.6,48.6,29.87,SE,132,0.0,0.0,83,0.00,,,0.00,Wunderground v.1.15,2013-08-25 07:42:00,
2013-08-25 01:44:00,53.3,48.3,29.86,SE,132,0.0,0.0,83,0.00,,,0.00,Wunderground v.1.15,2013-08-25 07:44:00,
2013-08-25 01:45:00,53.2,48.5,29.86,SE,133,0.0,0.0,84,0.00,,,0.00,Wunderground v.1.15,2013-08-25 07:45:00,
2013-08-25 01:46:00,53.1,48.4,29.86,ESE,108,0.0,1.0,84,0.00,,,0.00,Wunderground v.1.15,2013-08-25 07:46:00,
2013-08-25 01:51:00,52.6,48.2,29.86,ESE,108,0.0,1.0,85,0.00,,,0.00,Wunderground v.1.15,2013-08-25 07:51:00,
2013-08-25 01:52:00,52.4,48.0,29.86,ESE,109,0.0,1.0,85,0.00,,,0.00,Wunderground v.1.15,2013-08-25 07:52:00,
2013-08-25 01:53:00,52.3,48.2,29.87,ESE,105,0.0,1.0,86,0.00,,,0.00,Wunderground v.1.15,2013-08-25 07:53:00,
2013-08-25 01:56:00,52.0,48.3,29.87,West,274,1.0,2.0,87,0.00,,,0.00,Wunderground v.1.15,2013-08-25 07:56:00,
2013-08-25 01:57:00,52.2,48.4,29.87,West,276,1.0,2.0,87,0.00,,,0.00,Wunderground v.1.15,2013-08-25 07:57:00,
2013-08-25 01:59:00,52.5,48.1,29.87,West,277,1.0,2.0,85,0.00,,,0.00,Wunderground v.1.15,2013-08-25 07:59:00,
2013-08-25 02:02:00,53.1,48.4,29.87,WNW,283,2.0,3.0,84,0.00,,,0.00,Wunderground v.1.15,2013-08-25 08:02:00,
2013-08-25 02:03:00,53.1,48.4,29.87,West,272,2.0,3.0,84,0.00,,,0.00,Wunderground v.1.15,2013-08-25 08:03:00,
2013-08-25 02:06:00,53.0,48.3,29.87,West,273,1.0,3.0,84,0.00,,,0.00,Wunderground v.1.15,2013-08-25 08:06:00,
2013-08-25 02:08:00,52.8,48.1,29.87,West,263,1.0,3.0,84,0.00,,,0.00,Wunderground v.1.15,2013-08-25 08:08:00,
2013-08-25 02:09:00,52.8,48.4,29.88,SW,222,1.0,3.0,85,0.00,,,0.00,Wunderground v.1.15,2013-08-25 08:09:00,
2013-08-25 02:12:00,52.5,48.4,29.88,West,266,1.0,2.0,86,0.00,,,0.00,Wunderground v.1.15,2013-08-25 08:12:00,
2013-08-25 02:14:00,52.3,48.2,29.88,WNW,282,1.0,2.0,86,0.00,,,0.00,Wunderground v.1.15,2013-08-25 08:14:00,
2013-08-25 02:15:00,52.2,48.1,29.88,WNW,282,1.0,2.0,86,0.00,,,0.00,Wunderground v.1.15,2013-08-25 08:15:00,
2013-08-25 02:19:00,52.0,48.3,29.88,WSW,242,1.0,2.0,87,0.00,,,0.00,Wunderground v.1.15,2013-08-25 08:19:00,
2013-08-25 02:20:00,52.0,48.3,29.88,WSW,242,1.0,1.0,87,0.00,,,0.00,Wunderground v.1.15,2013-08-25 08:20:00,
2013-08-25 02:21:00,52.0,48.3,29.88,WSW,242,1.0,1.0,87,0.00,,,0.00,Wunderground v.1.15,2013-08-25 08:21:00,
2013-08-25 02:22:00,51.9,48.2,29.88,WSW,242,1.0,1.0,87,0.00,,,0.00,Wunderground v.1.15,2013-08-25 08:22:00,
2013-08-25 02:25:00,51.7,48.0,29.88,WSW,242,0.0,1.0,87,0.00,,,0.00,Wunderground v.1.15,2013-08-25 08:25:00,
2013-08-25 02:27:00,51.6,47.9,29.88,WSW,242,0.0,1.0,87,0.00,,,0.00,Wunderground v.1.15,2013-08-25 08:27:00,
2013-08-25 02:28:00,51.6,47.9,29.88,WSW,242,0.0,1.0,87,0.00,,,0.00,Wunderground v.1.15,2013-08-25 08:28:00,
2013-08-25 02:30:00,51.4,47.7,29.88,WSW,242,0.0,0.0,87,0.00,,,0.00,Wunderground v.1.15,2013-08-25 08:30:00,
2013-08-25 02:32:00,51.2,47.5,29.88,WSW,242,0.0,1.0,87,0.00,,,0.00,Wunderground v.1.15,2013-08-25 08:32:00,
2013-08-25 02:34:00,51.0,47.6,29.88,North,350,1.0,1.0,88,0.00,,,0.00,Wunderground v.1.15,2013-08-25 08:34:00,
2013-08-25 02:35:00,50.9,47.5,29.88,North,350,1.0,1.0,88,0.00,,,0.00,Wunderground v.1.15,2013-08-25 08:35:00,
2013-08-25 02:39:00,50.6,47.5,29.88,WSW,255,0.0,1.0,89,0.00,,,0.00,Wunderground v.1.15,2013-08-25 08:39:00,
2013-08-25 02:40:00,50.6,47.5,29.88,WSW,255,0.0,0.0,89,0.00,,,0.00,Wunderground v.1.15,2013-08-25 08:40:00,
2013-08-25 02:42:00,50.5,47.4,29.88,West,266,1.0,1.0,89,0.00,,,0.00,Wunderground v.1.15,2013-08-25 08:42:00,
2013-08-25 02:46:00,50.6,47.5,29.88,SSW,208,1.0,3.0,89,0.00,,,0.00,Wunderground v.1.15,2013-08-25 08:46:00,
2013-08-25 02:48:00,50.7,47.6,29.88,SW,229,1.0,3.0,89,0.00,,,0.00,Wunderground v.1.15,2013-08-25 08:48:00,
2013-08-25 02:49:00,50.8,47.4,29.88,West,266,1.0,3.0,88,0.00,,,0.00,Wunderground v.1.15,2013-08-25 08:49:00,
2013-08-25 02:50:00,50.9,47.5,29.88,SSW,211,1.0,2.0,88,0.00,,,0.00,Wunderground v.1.15,2013-08-25 08:50:00,
2013-08-25 02:51:00,51.1,47.7,29.88,WSW,243,2.0,2.0,88,0.00,,,0.00,Wunderground v.1.15,2013-08-25 08:51:00,
2013-08-25 02:54:00,51.4,47.7,29.88,West,276,1.0,2.0,87,0.00,,,0.00,Wunderground v.1.15,2013-08-25 08:54:00,
2013-08-25 02:55:00,51.6,47.5,29.88,WSW,255,2.0,2.0,86,0.00,,,0.00,Wunderground v.1.15,2013-08-25 08:55:00,
2013-08-25 02:56:00,51.7,47.6,29.88,SW,218,1.0,2.0,86,0.00,,,0.00,Wunderground v.1.15,2013-08-25 08:56:00,
2013-08-25 03:00:00,51.8,47.4,29.88,SW,229,1.0,2.0,85,0.00,,,0.00,Wunderground v.1.15,2013-08-25 09:00:00,
2013-08-25 03:02:00,51.7,47.3,29.89,SSW,208,1.0,2.0,85,0.00,,,0.00,Wunderground v.1.15,2013-08-25 09:02:00,
2013-08-25 03:03:00,51.7,47.3,29.88,SSW,208,1.0,2.0,85,0.00,,,0.00,Wunderground v.1.15,2013-08-25 09:03:00,
2013-08-25 03:04:00,51.6,47.2,29.89,SSW,208,1.0,2.0,85,0.00,,,0.00,Wunderground v.1.15,2013-08-25 09:04:00,
2013-08-25 03:06:00,51.5,47.1,29.89,SSW,208,1.0,2.0,85,0.00,,,0.00,Wunderground v.1.15,2013-08-25 09:06:00,
2013-08-25 03:09:00,51.2,47.2,29.89,SE,136,1.0,2.0,86,0.00,,,0.00,Wunderground v.1.15,2013-08-25 09:09:00,
2013-08-25 03:11:00,51.0,47.0,29.89,SE,131,0.0,1.0,86,0.00,,,0.00,Wunderground v.1.15,2013-08-25 09:11:00,
2013-08-25 03:13:00,50.9,47.2,29.89,East,80,1.0,1.0,87,0.00,,,0.00,Wunderground v.1.15,2013-08-25 09:13:00,
2013-08-25 03:14:00,50.9,47.2,29.89,East,80,1.0,1.0,87,0.00,,,0.00,Wunderground v.1.15,2013-08-25 09:14:00,
2013-08-25 03:15:00,50.8,47.1,29.89,East,80,1.0,1.0,87,0.00,,,0.00,Wunderground v.1.15,2013-08-25 09:15:00,
2013-08-25 03:18:00,50.8,47.1,29.89,East,80,1.0,1.0,87,0.00,,,0.00,Wunderground v.1.15,2013-08-25 09:18:00,
2013-08-25 03:20:00,50.8,47.1,29.89,South,172,1.0,1.0,87,0.00,,,0.00,Wunderground v.1.15,2013-08-25 09:20:00,
2013-08-25 03:21:00,50.8,47.1,29.89,South,172,0.0,1.0,87,0.00,,,0.00,Wunderground v.1.15,2013-08-25 09:21:00,
2013-08-25 03:22:00,50.8,47.1,29.89,South,172,0.0,1.0,87,0.00,,,0.00,Wunderground v.1.15,2013-08-25 09:22:00,
2013-08-25 03:23:00,50.7,47.0,29.89,South,172,0.0,1.0,87,0.00,,,0.00,Wunderground v.1.15,2013-08-25 09:23:00,
2013-08-25 03:25:00,50.6,46.9,29.89,South,172,0.0,1.0,87,0.00,,,0.00,Wunderground v.1.15,2013-08-25 09:25:00,
2013-08-25 03:29:00,50.2,46.8,29.89,SSW,207,0.0,1.0,88,0.00,,,0.00,Wunderground v.1.15,2013-08-25 09:29:00,
2013-08-25 03:30:00,50.2,46.8,29.89,SSW,207,0.0,0.0,88,0.00,,,0.00,Wunderground v.1.15,2013-08-25 09:30:00,
2013-08-25 03:33:00,50.3,46.9,29.89,SW,229,0.0,1.0,88,0.00,,,0.00,Wunderground v.1.15,2013-08-25 09:33:00,
2013-08-25 03:34:00,50.3,46.9,29.89,WSW,246,0.0,2.0,88,0.00,,,0.00,Wunderground v.1.15,2013-08-25 09:34:00,
2013-08-25 03:35:00,50.3,46.9,29.89,West,281,0.0,2.0,88,0.00,,,0.00,Wunderground v.1.15,2013-08-25 09:35:00,
2013-08-25 03:37:00,50.1,46.7,29.89,WNW,287,1.0,2.0,88,0.00,,,0.00,Wunderground v.1.15,2013-08-25 09:37:00,
2013-08-25 03:39:00,50.0,46.6,29.89,WNW,284,1.0,2.0,88,0.00,,,0.00,Wunderground v.1.15,2013-08-25 09:39:00,
2013-08-25 03:42:00,50.1,46.7,29.89,WNW,299,1.0,3.0,88,0.00,,,0.00,Wunderground v.1.15,2013-08-25 09:42:00,
2013-08-25 03:43:00,50.1,46.7,29.89,WNW,300,1.0,3.0,88,0.00,,,0.00,Wunderground v.1.15,2013-08-25 09:43:00,
2013-08-25 03:46:00,49.8,46.4,29.89,WNW,299,1.0,3.0,88,0.00,,,0.00,Wunderground v.1.15,2013-08-25 09:46:00,
2013-08-25 03:49:00,49.7,46.6,29.89,WNW,297,1.0,3.0,89,0.00,,,0.00,Wunderground v.1.15,2013-08-25 09:49:00,
2013-08-25 03:50:00,49.8,46.7,29.89,WNW,297,0.0,0.0,89,0.00,,,0.00,Wunderground v.1.15,2013-08-25 09:50:00,
2013-08-25 03:52:00,49.8,46.7,29.89,WNW,299,0.0,1.0,89,0.00,,,0.00,Wunderground v.1.15,2013-08-25 09:52:00,
2013-08-25 03:56:00,49.6,46.2,29.89,WNW,299,0.0,1.0,88,0.00,,,0.00,Wunderground v.1.15,2013-08-25 09:56:00,
2013-08-25 03:57:00,49.5,46.1,29.89,WNW,300,0.0,1.0,88,0.00,,,0.00,Wunderground v.1.15,2013-08-25 09:57:00,
2013-08-25 03:58:00,49.5,46.1,29.90,WNW,300,0.0,1.0,88,0.00,,,0.00,Wunderground v.1.15,2013-08-25 09:58:00,
2013-08-25 04:00:00,49.3,46.2,29.90,WNW,299,0.0,0.0,89,0.00,,,0.00,Wunderground v.1.15,2013-08-25 10:00:00,
2013-08-25 04:03:00,49.2,46.1,29.90,WNW,300,0.0,0.0,89,0.00,,,0.00,Wunderground v.1.15,2013-08-25 10:03:00,
2013-08-25 04:06:00,49.0,46.2,29.90,WNW,297,0.0,0.0,90,0.00,,,0.00,Wunderground v.1.15,2013-08-25 10:06:00,
2013-08-25 04:07:00,49.0,46.2,29.90,SW,219,0.0,1.0,90,0.00,,,0.00,Wunderground v.1.15,2013-08-25 10:07:00,
2013-08-25 04:12:00,49.1,46.6,29.90,SSW,208,0.0,0.0,91,0.00,,,0.00,Wunderground v.1.15,2013-08-25 10:12:00,
2013-08-25 04:13:00,49.0,46.5,29.90,SSW,207,0.0,0.0,91,0.00,,,0.00,Wunderground v.1.15,2013-08-25 10:13:00,
2013-08-25 04:15:00,48.9,46.4,29.90,SSW,207,0.0,0.0,91,0.00,,,0.00,Wunderground v.1.15,2013-08-25 10:15:00,
2013-08-25 04:16:00,48.9,46.4,29.90,SSW,208,0.0,0.0,91,0.00,,,0.00,Wunderground v.1.15,2013-08-25 10:16:00,
2013-08-25 04:21:00,48.9,46.7,29.89,West,262,1.0,2.0,92,0.00,,,0.00,Wunderground v.1.15,2013-08-25 10:21:00,
2013-08-25 04:22:00,48.9,46.7,29.89,West,262,1.0,2.0,92,0.00,,,0.00,Wunderground v.1.15,2013-08-25 10:22:00,
2013-08-25 04:23:00,49.0,46.8,29.89,West,262,1.0,2.0,92,0.00,,,0.00,Wunderground v.1.15,2013-08-25 10:23:00,
2013-08-25 04:24:00,49.0,46.8,29.89,West,261,1.0,2.0,92,0.00,,,0.00,Wunderground v.1.15,2013-08-25 10:24:00,
2013-08-25 04:27:00,48.9,46.4,29.90,West,262,1.0,2.0,91,0.00,,,0.00,Wunderground v.1.15,2013-08-25 10:27:00,
2013-08-25 04:29:00,48.8,46.3,29.89,West,261,1.0,2.0,91,0.00,,,0.00,Wunderground v.1.15,2013-08-25 10:29:00,
2013-08-25 04:30:00,48.8,46.3,29.89,West,262,0.0,0.0,91,0.00,,,0.00,Wunderground v.1.15,2013-08-25 10:30:00,
2013-08-25 04:33:00,48.6,46.1,29.90,West,261,0.0,0.0,91,0.00,,,0.00,Wunderground v.1.15,2013-08-25 10:33:00,
2013-08-25 04:35:00,48.5,46.0,29.90,West,261,0.0,0.0,91,0.00,,,0.00,Wunderground v.1.15,2013-08-25 10:35:00,
2013-08-25 04:40:00,48.2,45.7,29.90,West,261,0.0,0.0,91,0.00,,,0.00,Wunderground v.1.15,2013-08-25 10:40:00,
2013-08-25 04:41:00,48.2,46.0,29.90,West,262,0.0,0.0,92,0.00,,,0.00,Wunderground v.1.15,2013-08-25 10:41:00,
2013-08-25 04:43:00,48.1,45.9,29.90,West,261,0.0,0.0,92,0.00,,,0.00,Wunderground v.1.15,2013-08-25 10:43:00,
2013-08-25 04:45:00,48.1,45.9,29.90,West,261,0.0,1.0,92,0.00,,,0.00,Wunderground v.1.15,2013-08-25 10:45:00,
2013-08-25 04:46:00,48.1,45.9,29.90,West,261,0.0,1.0,92,0.00,,,0.00,Wunderground v.1.15,2013-08-25 10:46:00,
2013-08-25 04:48:00,48.1,45.9,29.90,West,261,0.0,2.0,92,0.00,,,0.00,Wunderground v.1.15,2013-08-25 10:48:00,
2013-08-25 04:49:00,48.1,46.2,29.90,West,261,1.0,2.0,93,0.00,,,0.00,Wunderground v.1.15,2013-08-25 10:49:00,
2013-08-25 04:52:00,48.2,46.3,29.90,West,269,1.0,2.0,93,0.00,,,0.00,Wunderground v.1.15,2013-08-25 10:52:00,
2013-08-25 04:54:00,48.3,46.4,29.90,West,270,1.0,2.0,93,0.00,,,0.00,Wunderground v.1.15,2013-08-25 10:54:00,
2013-08-25 04:55:00,48.4,46.5,29.90,West,270,1.0,2.0,93,0.00,,,0.00,Wunderground v.1.15,2013-08-25 10:55:00,
2013-08-25 04:57:00,48.5,46.6,29.90,West,270,1.0,2.0,93,0.00,,,0.00,Wunderground v.1.15,2013-08-25 10:57:00,
2013-08-25 04:58:00,48.5,46.3,29.90,West,270,1.0,2.0,92,0.00,,,0.00,Wunderground v.1.15,2013-08-25 10:58:00,
2013-08-25 05:00:00,48.4,46.2,29.90,West,270,1.0,1.0,92,0.00,,,0.00,Wunderground v.1.15,2013-08-25 11:00:00,
2013-08-25 05:02:00,48.3,45.8,29.90,West,270,1.0,1.0,91,0.00,,,0.00,Wunderground v.1.15,2013-08-25 11:02:00,
2013-08-25 05:03:00,48.2,45.7,29.90,West,270,0.0,1.0,91,0.00,,,0.00,Wunderground v.1.15,2013-08-25 11:03:00,
2013-08-25 05:06:00,47.9,45.4,29.90,West,270,0.0,1.0,91,0.00,,,0.00,Wunderground v.1.15,2013-08-25 11:06:00,
2013-08-25 05:09:00,47.6,45.1,29.90,WNW,282,0.0,2.0,91,0.00,,,0.00,Wunderground v.1.15,2013-08-25 11:09:00,
2013-08-25 05:11:00,47.4,45.2,29.89,North,353,0.0,1.0,92,0.00,,,0.00,Wunderground v.1.15,2013-08-25 11:11:00,
2013-08-25 05:16:00,47.1,44.9,29.90,North,351,1.0,1.0,92,0.00,,,0.00,Wunderground v.1.15,2013-08-25 11:16:00,
2013-08-25 05:17:00,47.2,45.3,29.90,NNW,329,1.0,1.0,93,0.00,,,0.00,Wunderground v.1.15,2013-08-25 11:17:00,
2013-08-25 05:19:00,47.3,45.4,29.90,NNW,331,1.0,1.0,93,0.00,,,0.00,Wunderground v.1.15,2013-08-25 11:19:00,
2013-08-25 05:20:00,47.3,45.4,29.90,NNW,332,1.0,1.0,93,0.00,,,0.00,Wunderground v.1.15,2013-08-25 11:20:00,
2013-08-25 05:22:00,47.3,45.4,29.90,ENE,68,0.0,1.0,93,0.00,,,0.00,Wunderground v.1.15,2013-08-25 11:22:00,
2013-08-25 05:24:00,47.1,44.9,29.90,ENE,68,0.0,1.0,92,0.00,,,0.00,Wunderground v.1.15,2013-08-25 11:24:00,
2013-08-25 05:25:00,47.1,44.9,29.90,ENE,68,0.0,1.0,92,0.00,,,0.00,Wunderground v.1.15,2013-08-25 11:25:00,
2013-08-25 05:28:00,47.0,44.8,29.90,ENE,68,0.0,1.0,92,0.00,,,0.00,Wunderground v.1.15,2013-08-25 11:28:00,
2013-08-25 05:30:00,46.9,44.7,29.90,ENE,68,0.0,0.0,92,0.00,,,0.00,Wunderground v.1.15,2013-08-25 11:30:00,
2013-08-25 05:31:00,46.9,45.0,29.90,ENE,68,0.0,0.0,93,0.00,,,0.00,Wunderground v.1.15,2013-08-25 11:31:00,
2013-08-25 05:32:00,46.9,45.0,29.90,ENE,68,0.0,0.0,93,0.00,,,0.00,Wunderground v.1.15,2013-08-25 11:32:00,
2013-08-25 05:33:00,46.9,45.0,29.90,ENE,68,0.0,0.0,93,0.00,,,0.00,Wunderground v.1.15,2013-08-25 11:33:00,
2013-08-25 05:39:00,46.9,45.0,29.90,West,271,0.0,0.0,93,0.00,,,0.00,Wunderground v.1.15,2013-08-25 11:39:00,
2013-08-25 05:40:00,46.9,45.3,29.90,West,274,0.0,0.0,94,0.00,,,0.00,Wunderground v.1.15,2013-08-25 11:40:00,
2013-08-25 05:41:00,47.0,45.4,29.90,West,278,0.0,0.0,94,0.00,,,0.00,Wunderground v.1.15,2013-08-25 11:41:00,
2013-08-25 05:45:00,47.1,45.5,29.90,West,278,0.0,0.0,94,0.00,,,0.00,Wunderground v.1.15,2013-08-25 11:45:00,
2013-08-25 05:46:00,47.1,45.5,29.90,West,278,0.0,0.0,94,0.00,,,0.00,Wunderground v.1.15,2013-08-25 11:46:00,
2013-08-25 05:48:00,47.1,45.5,29.90,West,278,0.0,0.0,94,0.00,,,0.00,Wunderground v.1.15,2013-08-25 11:48:00,
2013-08-25 05:51:00,47.1,45.5,29.90,West,278,0.0,0.0,94,0.00,,,0.00,Wunderground v.1.15,2013-08-25 11:51:00,
2013-08-25 05:52:00,47.2,45.6,29.91,West,278,0.0,0.0,94,0.00,,,0.00,Wunderground v.1.15,2013-08-25 11:52:00,
2013-08-25 05:53:00,47.3,45.7,29.91,WNW,295,0.0,2.0,94,0.00,,,0.00,Wunderground v.1.15,2013-08-25 11:53:00,
2013-08-25 05:54:00,47.4,45.8,29.91,WNW,295,0.0,3.0,94,0.00,,,0.00,Wunderground v.1.15,2013-08-25 11:54:00,
2013-08-25 05:57:00,47.6,46.0,29.91,WNW,288,1.0,3.0,94,0.00,,,0.00,Wunderground v.1.15,2013-08-25 11:57:00,
2013-08-25 05:58:00,47.6,45.7,29.91,WNW,287,1.0,3.0,93,0.00,,,0.00,Wunderground v.1.15,2013-08-25 11:58:00,
2013-08-25 06:00:00,47.6,45.7,29.91,WNW,300,2.0,2.0,93,0.00,,,0.00,Wunderground v.1.15,2013-08-25 12:00:00,
2013-08-25 06:02:00,47.6,45.7,29.91,NW,314,2.0,2.0,93,0.00,,,0.00,Wunderground v.1.15,2013-08-25 12:02:00,
2013-08-25 06:05:00,47.4,45.2,29.91,NW,310,2.0,3.0,92,0.00,,,0.00,Wunderground v.1.15,2013-08-25 12:05:00,
2013-08-25 06:06:00,47.3,45.1,29.91,NW,310,2.0,3.0,92,0.00,,,0.00,Wunderground v.1.15,2013-08-25 12:06:00,
2013-08-25 06:07:00,47.2,45.0,29.91,NW,311,1.0,3.0,92,0.00,,,0.00,Wunderground v.1.15,2013-08-25 12:07:00,
2013-08-25 06:10:00,47.3,45.4,29.91,NW,308,1.0,3.0,93,0.00,,,0.00,Wunderground v.1.15,2013-08-25 12:10:00,
2013-08-25 06:13:00,47.4,45.5,29.91,NW,308,2.0,3.0,93,0.00,,,0.00,Wunderground v.1.15,2013-08-25 12:13:00,
2013-08-25 06:14:00,47.5,45.6,29.91,NW,308,2.0,3.0,93,0.00,,,0.00,Wunderground v.1.15,2013-08-25 12:14:00,
2013-08-25 06:16:00,47.6,45.7,29.91,NW,308,2.0,3.0,93,0.00,,,0.00,Wunderground v.1.15,2013-08-25 12:16:00,
2013-08-25 06:19:00,47.9,46.0,29.91,NW,307,2.0,3.0,93,0.00,,,0.00,Wunderground v.1.15,2013-08-25 12:19:00,
2013-08-25 06:20:00,47.9,46.0,29.91,NW,308,2.0,4.0,93,0.00,,,0.00,Wunderground v.1.15,2013-08-25 12:20:00,
2013-08-25 06:24:00,48.0,45.8,29.91,WNW,295,2.0,4.0,92,0.00,,,0.00,Wunderground v.1.15,2013-08-25 12:24:00,
2013-08-25 06:26:00,47.8,45.3,29.91,WNW,295,3.0,5.0,91,0.00,,,0.00,Wunderground v.1.15,2013-08-25 12:26:00,
2013-08-25 06:27:00,47.7,45.2,29.91,WNW,294,3.0,5.0,91,0.00,,,0.00,Wunderground v.1.15,2013-08-25 12:27:00,
2013-08-25 06:29:00,47.7,45.2,29.91,WNW,301,3.0,5.0,91,0.00,,,0.00,Wunderground v.1.15,2013-08-25 12:29:00,
2013-08-25 06:32:00,47.8,45.6,29.91,WNW,301,3.0,3.0,92,0.00,,,0.00,Wunderground v.1.15,2013-08-25 12:32:00,
2013-08-25 06:33:00,47.8,45.6,29.91,WNW,301,2.0,3.0,92,0.00,,,0.00,Wunderground v.1.15,2013-08-25 12:33:00,
2013-08-25 06:35:00,47.8,45.6,29.91,WNW,301,2.0,3.0,92,0.00,,,0.00,Wunderground v.1.15,2013-08-25 12:35:00,
2013-08-25 06:36:00,47.7,45.2,29.91,East,80,2.0,3.0,91,0.00,,,0.00,Wunderground v.1.15,2013-08-25 12:36:00,
2013-08-25 06:39:00,47.6,45.1,29.91,East,97,1.0,3.0,91,0.00,,,0.00,Wunderground v.1.15,2013-08-25 12:39:00,
2013-08-25 06:41:00,47.6,45.4,29.91,East,98,1.0,1.0,92,0.00,,,0.00,Wunderground v.1.15,2013-08-25 12:41:00,
2013-08-25 06:43:00,47.5,45.3,29.91,East,79,1.0,2.0,92,0.00,,,0.00,Wunderground v.1.15,2013-08-25 12:43:00,
2013-08-25 06:46:00,47.4,45.2,29.91,NNE,15,1.0,3.0,92,0.00,,,0.00,Wunderground v.1.15,2013-08-25 12:46:00,
2013-08-25 06:47:00,47.4,45.2,29.91,NNE,12,1.0,3.0,92,0.00,,,0.00,Wunderground v.1.15,2013-08-25 12:47:00,
2013-08-25 06:49:00,47.5,45.6,29.91,North,9,1.0,3.0,93,0.00,,,0.00,Wunderground v.1.15,2013-08-25 12:49:00,
2013-08-25 06:50:00,47.5,45.6,29.91,North,9,1.0,1.0,93,0.00,,,0.00,Wunderground v.1.15,2013-08-25 12:50:00,
2013-08-25 06:53:00,47.6,45.7,29.91,North,9,1.0,1.0,93,0.00,,,0.00,Wunderground v.1.15,2013-08-25 12:53:00,
2013-08-25 06:55:00,47.7,45.8,29.91,North,8,1.0,1.0,93,0.00,,,0.00,Wunderground v.1.15,2013-08-25 12:55:00,
2013-08-25 06:56:00,47.8,45.9,29.91,North,9,0.0,1.0,93,0.00,,,0.00,Wunderground v.1.15,2013-08-25 12:56:00,
2013-08-25 07:00:00,48.0,46.1,29.91,North,9,0.0,0.0,93,0.00,,,0.00,Wunderground v.1.15,2013-08-25 13:00:00,
2013-08-25 07:05:00,48.3,46.4,29.92,North,8,0.0,0.0,93,0.00,,,0.00,Wunderground v.1.15,2013-08-25 13:05:00,
2013-08-25 07:07:00,48.3,46.4,29.92,North,9,0.0,0.0,93,0.00,,,0.00,Wunderground v.1.15,2013-08-25 13:07:00,
2013-08-25 07:08:00,48.4,46.5,29.92,North,9,0.0,0.0,93,0.00,,,0.00,Wunderground v.1.15,2013-08-25 13:08:00,
2013-08-25 07:09:00,48.5,46.6,29.92,North,6,0.0,1.0,93,0.00,,,0.00,Wunderground v.1.15,2013-08-25 13:09:00,
2013-08-25 07:13:00,48.9,46.7,29.92,NW,304,1.0,3.0,92,0.00,,,0.00,Wunderground v.1.15,2013-08-25 13:13:00,
2013-08-25 07:15:00,49.2,47.0,29.92,NW,310,1.0,3.0,92,0.00,,,0.00,Wunderground v.1.15,2013-08-25 13:15:00,
2013-08-25 07:17:00,49.4,47.2,29.92,NW,304,2.0,3.0,92,0.00,,,0.00,Wunderground v.1.15,2013-08-25 13:17:00,
2013-08-25 07:21:00,49.9,47.1,29.92,NW,305,2.0,2.0,90,0.00,,,0.00,Wunderground v.1.15,2013-08-25 13:21:00,
2013-08-25 07:23:00,50.4,47.9,29.92,NW,305,2.0,2.0,91,0.00,,,0.00,Wunderground v.1.15,2013-08-25 13:23:00,
2013-08-25 07:26:00,51.2,48.4,29.92,NW,305,1.0,2.0,90,0.00,,,0.00,Wunderground v.1.15,2013-08-25 13:26:00,
2013-08-25 07:27:00,51.5,48.7,29.92,NW,305,1.0,2.0,90,0.00,,,0.00,Wunderground v.1.15,2013-08-25 13:27:00,
2013-08-25 07:31:00,52.2,48.1,29.92,ESE,116,0.0,3.0,86,0.00,,,0.00,Wunderground v.1.15,2013-08-25 13:31:00,
2013-08-25 07:32:00,52.3,48.2,29.92,ESE,103,1.0,3.0,86,0.00,,,0.00,Wunderground v.1.15,2013-08-25 13:32:00,
2013-08-25 07:33:00,52.3,48.2,29.92,ESE,102,1.0,3.0,86,0.00,,,0.00,Wunderground v.1.15,2013-08-25 13:33:00,
2013-08-25 07:36:00,52.5,48.4,29.92,NNE,30,1.0,3.0,86,0.00,,,0.00,Wunderground v.1.15,2013-08-25 13:36:00,
2013-08-25 07:39:00,52.6,48.2,29.92,North,11,1.0,3.0,85,0.00,,,0.00,Wunderground v.1.15,2013-08-25 13:39:00,
2013-08-25 07:42:00,52.8,48.7,29.92,North,11,0.0,1.0,86,0.00,,,0.00,Wunderground v.1.15,2013-08-25 13:42:00,
2013-08-25 07:44:00,52.9,48.5,29.92,North,11,0.0,1.0,85,0.00,,,0.00,Wunderground v.1.15,2013-08-25 13:44:00,
2013-08-25 07:48:00,53.4,49.3,29.92,East,96,0.0,2.0,86,0.00,,,0.00,Wunderground v.1.15,2013-08-25 13:48:00,
2013-08-25 07:49:00,53.6,49.2,29.92,ESE,112,0.0,2.0,85,0.00,,,0.00,Wunderground v.1.15,2013-08-25 13:49:00,
2013-08-25 07:50:00,53.7,49.3,29.91,ESE,112,0.0,0.0,85,0.00,,,0.00,Wunderground v.1.15,2013-08-25 13:50:00,
2013-08-25 07:52:00,54.1,50.0,29.92,ESE,111,0.0,1.0,86,0.00,,,0.00,Wunderground v.1.15,2013-08-25 13:52:00,
2013-08-25 07:55:00,54.5,49.4,29.92,SE,142,1.0,1.0,83,0.00,,,0.00,Wunderground v.1.15,2013-08-25 13:55:00,
2013-08-25 07:57:00,54.7,49.6,29.91,SE,134,1.0,1.0,83,0.00,,,0.00,Wunderground v.1.15,2013-08-25 13:57:00,
2013-08-25 07:58:00,54.9,49.8,29.91,SE,134,1.0,1.0,83,0.00,,,0.00,Wunderground v.1.15,2013-08-25 13:58:00,
2013-08-25 07:59:00,55.0,49.6,29.91,SE,128,0.0,1.0,82,0.00,,,0.00,Wunderground v.1.15,2013-08-25 13:59:00,
2013-08-25 08:00:00,55.1,49.7,29.91,East,96,0.0,2.0,82,0.00,,,0.00,Wunderground v.1.15,2013-08-25 14:00:00,
2013-08-25 08:03:00,55.2,49.5,29.91,ESE,103,1.0,2.0,81,0.00,,,0.00,Wunderground v.1.15,2013-08-25 14:03:00,
2013-08-25 08:06:00,55.5,50.1,29.91,East,101,1.0,2.0,82,0.00,,,0.00,Wunderground v.1.15,2013-08-25 14:06:00,
2013-08-25 08:07:00,55.7,50.0,29.91,East,101,1.0,2.0,81,0.00,,,0.00,Wunderground v.1.15,2013-08-25 14:07:00,
2013-08-25 08:09:00,56.1,50.3,29.91,East,100,1.0,2.0,81,0.00,,,0.00,Wunderground v.1.15,2013-08-25 14:09:00,
2013-08-25 08:10:00,56.4,50.6,29.91,East,101,1.0,1.0,81,0.00,,,0.00,Wunderground v.1.15,2013-08-25 14:10:00,
2013-08-25 08:15:00,57.8,50.6,29.90,East,92,1.0,1.0,77,0.00,,,0.00,Wunderground v.1.15,2013-08-25 14:15:00,
2013-08-25 08:16:00,57.9,50.7,29.91,East,92,1.0,1.0,77,0.00,,,0.00,Wunderground v.1.15,2013-08-25 14:16:00,
2013-08-25 08:18:00,58.0,50.5,29.90,East,92,1.0,2.0,76,0.00,,,0.00,Wunderground v.1.15,2013-08-25 14:18:00,
2013-08-25 08:19:00,58.1,50.9,29.91,SE,134,1.0,2.0,77,0.00,,,0.00,Wunderground v.1.15,2013-08-25 14:19:00,
2013-08-25 08:20:00,58.1,50.6,29.90,ESE,122,1.0,1.0,76,0.00,,,0.00,Wunderground v.1.15,2013-08-25 14:20:00,
2013-08-25 08:22:00,58.3,51.1,29.90,ESE,118,1.0,1.0,77,0.00,,,0.00,Wunderground v.1.15,2013-08-25 14:22:00,
2013-08-25 08:23:00,58.5,51.3,29.90,ESE,118,1.0,1.0,77,0.00,,,0.00,Wunderground v.1.15,2013-08-25 14:23:00,
2013-08-25 08:25:00,58.8,50.9,29.91,SE,132,1.0,1.0,75,0.00,,,0.00,Wunderground v.1.15,2013-08-25 14:25:00,
2013-08-25 08:27:00,59.1,51.2,29.90,SE,132,1.0,1.0,75,0.00,,,0.00,Wunderground v.1.15,2013-08-25 14:27:00,
2013-08-25 08:29:00,59.7,52.1,29.90,SE,126,0.0,1.0,76,0.00,,,0.00,Wunderground v.1.15,2013-08-25 14:29:00,
2013-08-25 08:30:00,59.9,51.6,29.91,ESE,117,0.0,2.0,74,0.00,,,0.00,Wunderground v.1.15,2013-08-25 14:30:00,
2013-08-25 08:31:00,60.0,51.3,29.90,ESE,113,0.0,2.0,73,0.00,,,0.00,Wunderground v.1.15,2013-08-25 14:31:00,
2013-08-25 08:33:00,60.3,51.6,29.90,East,87,1.0,2.0,73,0.00,,,0.00,Wunderground v.1.15,2013-08-25 14:33:00,
2013-08-25 08:35:00,60.5,51.8,29.90,East,89,0.0,2.0,73,0.00,,,0.00,Wunderground v.1.15,2013-08-25 14:35:00,
2013-08-25 08:36:00,60.5,51.8,29.90,ESE,118,0.0,2.0,73,0.00,,,0.00,Wunderground v.1.15,2013-08-25 14:36:00,
2013-08-25 08:37:00,60.6,51.9,29.90,ESE,119,0.0,2.0,73,0.00,,,0.00,Wunderground v.1.15,2013-08-25 14:37:00,
2013-08-25 08:39:00,61.2,52.1,29.90,ESE,116,0.0,2.0,72,0.00,,,0.00,Wunderground v.1.15,2013-08-25 14:39:00,
2013-08-25 08:41:00,61.7,53.0,29.90,ESE,105,0.0,0.0,73,0.00,,,0.00,Wunderground v.1.15,2013-08-25 14:41:00,
2013-08-25 08:42:00,61.9,53.1,29.90,ESE,105,0.0,0.0,73,0.00,,,0.00,Wunderground v.1.15,2013-08-25 14:42:00,
2013-08-25 08:45:00,62.7,52.4,29.90,ESE,115,0.0,1.0,69,0.00,,,0.00,Wunderground v.1.15,2013-08-25 14:45:00,
2013-08-25 08:47:00,63.1,52.4,29.90,SE,143,0.0,2.0,68,0.00,,,0.00,Wunderground v.1.15,2013-08-25 14:47:00,
2013-08-25 08:49:00,63.4,51.8,29.90,ESE,109,0.0,2.0,66,0.00,,,0.00,Wunderground v.1.15,2013-08-25 14:49:00,
2013-08-25 08:50:00,63.5,51.5,29.90,SE,124,0.0,1.0,65,0.00,,,0.00,Wunderground v.1.15,2013-08-25 14:50:00,
2013-08-25 08:55:00,64.1,52.1,29.90,SE,145,1.0,1.0,65,0.00,,,0.00,Wunderground v.1.15,2013-08-25 14:55:00,
2013-08-25 08:56:00,64.2,52.2,29.90,SE,126,1.0,1.0,65,0.00,,,0.00,Wunderground v.1.15,2013-08-25 14:56:00,
2013-08-25 09:00:00,64.5,52.5,29.90,SE,134,1.0,1.0,65,0.00,,,0.00,Wunderground v.1.15,2013-08-25 15:00:00,
2013-08-25 09:01:00,64.6,52.6,29.90,ESE,122,1.0,1.0,65,0.00,,,0.00,Wunderground v.1.15,2013-08-25 15:01:00,
2013-08-25 09:02:00,64.7,51.8,29.90,SE,129,1.0,1.0,63,0.00,,,0.00,Wunderground v.1.15,2013-08-25 15:02:00,
2013-08-25 09:03:00,64.7,52.2,29.90,ESE,111,1.0,1.0,64,0.00,,,0.00,Wunderground v.1.15,2013-08-25 15:03:00,
2013-08-25 09:05:00,64.9,52.0,29.90,ESE,111,1.0,1.0,63,0.00,,,0.00,Wunderground v.1.15,2013-08-25 15:05:00,
2013-08-25 09:08:00,65.3,51.9,29.90,ESE,111,0.0,1.0,62,0.00,,,0.00,Wunderground v.1.15,2013-08-25 15:08:00,
2013-08-25 09:09:00,65.4,52.0,29.90,ESE,111,0.0,1.0,62,0.00,,,0.00,Wunderground v.1.15,2013-08-25 15:09:00,
2013-08-25 09:11:00,65.3,51.9,29.89,ESE,111,0.0,0.0,62,0.00,,,0.00,Wunderground v.1.15,2013-08-25 15:11:00,
2013-08-25 09:15:00,65.5,50.8,29.89,ESE,112,0.0,0.0,59,0.00,,,0.00,Wunderground v.1.15,2013-08-25 15:15:00,
2013-08-25 09:17:00,65.9,52.1,29.89,ESE,112,0.0,0.0,61,0.00,,,0.00,Wunderground v.1.15,2013-08-25 15:17:00,
2013-08-25 09:21:00,67.5,51.7,29.89,ESE,105,0.0,2.0,57,0.00,,,0.00,Wunderground v.1.15,2013-08-25 15:21:00,
2013-08-25 09:22:00,67.6,51.3,29.89,ESE,106,1.0,2.0,56,0.00,,,0.00,Wunderground v.1.15,2013-08-25 15:22:00,
2013-08-25 09:24:00,67.9,51.6,29.89,East,89,1.0,2.0,56,0.00,,,0.00,Wunderground v.1.15,2013-08-25 15:24:00,
2013-08-25 09:25:00,68.0,52.2,29.89,East,90,1.0,2.0,57,0.00,,,0.00,Wunderground v.1.15,2013-08-25 15:25:00,
2013-08-25 09:27:00,68.5,52.7,29.89,ESE,118,1.0,2.0,57,0.00,,,0.00,Wunderground v.1.15,2013-08-25 15:27:00,
2013-08-25 09:30:00,69.2,51.3,29.89,East,94,1.0,1.0,53,0.00,,,0.00,Wunderground v.1.15,2013-08-25 15:30:00,
2013-08-25 09:33:00,69.7,52.8,29.89,SE,127,1.0,1.0,55,0.00,,,0.00,Wunderground v.1.15,2013-08-25 15:33:00,
2013-08-25 09:35:00,70.1,51.7,29.89,SE,139,1.0,2.0,52,0.00,,,0.00,Wunderground v.1.15,2013-08-25 15:35:00,
2013-08-25 09:36:00,70.2,51.2,29.89,East,98,1.0,2.0,51,0.00,,,0.00,Wunderground v.1.15,2013-08-25 15:36:00,
2013-08-25 09:37:00,70.4,51.9,29.89,East,98,1.0,2.0,52,0.00,,,0.00,Wunderground v.1.15,2013-08-25 15:37:00,
2013-08-25 09:42:00,71.4,52.9,29.89,SW,233,1.0,1.0,52,0.00,,,0.00,Wunderground v.1.15,2013-08-25 15:42:00,
2013-08-25 09:43:00,71.5,52.9,29.89,SW,233,1.0,1.0,52,0.00,,,0.00,Wunderground v.1.15,2013-08-25 15:43:00,
2013-08-25 09:44:00,71.6,52.0,29.89,ESE,118,1.0,2.0,50,0.00,,,0.00,Wunderground v.1.15,2013-08-25 15:44:00,
2013-08-25 09:47:00,71.8,50.5,29.89,East,80,1.0,2.0,47,0.00,,,0.00,Wunderground v.1.15,2013-08-25 15:47:00,
2013-08-25 09:49:00,72.1,51.9,29.89,SE,134,1.0,2.0,49,0.00,,,0.00,Wunderground v.1.15,2013-08-25 15:49:00,
2013-08-25 09:52:00,72.6,49.4,29.88,SSW,207,1.0,2.0,44,0.00,,,0.00,Wunderground v.1.15,2013-08-25 15:52:00,
2013-08-25 09:56:00,72.9,49.1,29.88,SE,145,2.0,3.0,43,0.00,,,0.00,Wunderground v.1.15,2013-08-25 15:56:00,
2013-08-25 09:57:00,73.1,49.9,29.88,ESE,121,2.0,3.0,44,0.00,,,0.00,Wunderground v.1.15,2013-08-25 15:57:00,
2013-08-25 09:59:00,73.3,47.5,29.88,SSW,193,2.0,3.0,40,0.00,,,0.00,Wunderground v.1.15,2013-08-25 15:59:00,
2013-08-25 10:01:00,73.2,46.8,29.89,East,101,3.0,5.0,39,0.00,,,0.00,Wunderground v.1.15,2013-08-25 16:01:00,
2013-08-25 10:02:00,73.2,46.1,29.89,SW,218,3.0,5.0,38,0.00,,,0.00,Wunderground v.1.15,2013-08-25 16:02:00,
2013-08-25 10:03:00,73.2,47.4,29.89,SSW,211,3.0,6.0,40,0.00,,,0.00,Wunderground v.1.15,2013-08-25 16:03:00,
2013-08-25 10:05:00,73.2,46.1,29.89,SW,225,3.0,6.0,38,0.00,,,0.00,Wunderground v.1.15,2013-08-25 16:05:00,
2013-08-25 10:07:00,73.3,46.8,29.88,SE,141,3.0,6.0,39,0.00,,,0.00,Wunderground v.1.15,2013-08-25 16:07:00,
2013-08-25 10:08:00,73.5,47.0,29.89,SSW,193,4.0,6.0,39,0.00,,,0.00,Wunderground v.1.15,2013-08-25 16:08:00,
2013-08-25 10:11:00,73.9,48.1,29.89,SW,219,3.0,4.0,40,0.00,,,0.00,Wunderground v.1.15,2013-08-25 16:11:00,
2013-08-25 10:12:00,74.0,48.1,29.89,South,183,3.0,4.0,40,0.00,,,0.00,Wunderground v.1.15,2013-08-25 16:12:00,
2013-08-25 10:13:00,74.1,46.9,29.89,SW,236,3.0,4.0,38,0.00,,,0.00,Wunderground v.1.15,2013-08-25 16:13:00,
2013-08-25 10:14:00,74.2,47.6,29.88,SSE,153,3.0,4.0,39,0.00,,,0.00,Wunderground v.1.15,2013-08-25 16:14:00,
2013-08-25 10:15:00,74.2,47.6,29.89,SW,216,3.0,7.0,39,0.00,,,0.00,Wunderground v.1.15,2013-08-25 16:15:00,
2013-08-25 10:18:00,74.1,47.6,29.89,West,262,3.0,7.0,39,0.00,,,0.00,Wunderground v.1.15,2013-08-25 16:18:00,
2013-08-25 10:19:00,74.0,46.8,29.88,SSE,155,4.0,7.0,38,0.00,,,0.00,Wunderground v.1.15,2013-08-25 16:19:00,
2013-08-25 10:21:00,73.9,46.0,29.88,SSW,201,4.0,6.0,37,0.00,,,0.00,Wunderground v.1.15,2013-08-25 16:21:00,
2013-08-25 10:22:00,73.8,46.6,29.88,SSW,195,4.0,6.0,38,0.00,,,0.00,Wunderground v.1.15,2013-08-25 16:22:00,
2013-08-25 10:25:00,74.0,48.8,29.89,SE,146,4.0,6.0,41,0.00,,,0.00,Wunderground v.1.15,2013-08-25 16:25:00,
2013-08-25 10:30:00,75.0,47.7,29.89,SSW,204,3.0,3.0,38,0.00,,,0.00,Wunderground v.1.15,2013-08-25 16:30:00,
2013-08-25 10:31:00,75.2,47.8,29.89,SW,231,3.0,5.0,38,0.00,,,0.00,Wunderground v.1.15,2013-08-25 16:31:00,
2013-08-25 10:32:00,75.2,47.1,29.89,South,174,3.0,5.0,37,0.00,,,0.00,Wunderground v.1.15,2013-08-25 16:32:00,
2013-08-25 10:35:00,75.2,45.7,29.89,SSW,204,3.0,6.0,35,0.00,,,0.00,Wunderground v.1.15,2013-08-25 16:35:00,
2013-08-25 10:36:00,75.1,45.6,29.89,SW,225,4.0,6.0,35,0.00,,,0.00,Wunderground v.1.15,2013-08-25 16:36:00,
2013-08-25 10:37:00,75.0,47.7,29.89,SW,221,4.0,6.0,38,0.00,,,0.00,Wunderground v.1.15,2013-08-25 16:37:00,
2013-08-25 10:43:00,75.3,47.2,29.89,SSE,158,3.0,4.0,37,0.00,,,0.00,Wunderground v.1.15,2013-08-25 16:43:00,
2013-08-25 10:44:00,75.5,46.7,29.89,SE,131,3.0,4.0,36,0.00,,,0.00,Wunderground v.1.15,2013-08-25 16:44:00,
2013-08-25 10:45:00,75.7,46.1,29.88,SE,131,3.0,4.0,35,0.00,,,0.00,Wunderground v.1.15,2013-08-25 16:45:00,
2013-08-25 10:46:00,75.8,45.4,29.89,ESE,122,3.0,4.0,34,0.00,,,0.00,Wunderground v.1.15,2013-08-25 16:46:00,
2013-08-25 10:47:00,75.8,45.4,29.89,SE,128,3.0,4.0,34,0.00,,,0.00,Wunderground v.1.15,2013-08-25 16:47:00,
2013-08-25 10:51:00,75.8,46.2,29.89,SE,126,2.0,3.0,35,0.00,,,0.00,Wunderground v.1.15,2013-08-25 16:51:00,
2013-08-25 10:52:00,75.8,45.4,29.89,ESE,103,2.0,3.0,34,0.00,,,0.00,Wunderground v.1.15,2013-08-25 16:52:00,
2013-08-25 10:53:00,75.8,46.2,29.89,ESE,113,2.0,3.0,35,0.00,,,0.00,Wunderground v.1.15,2013-08-25 16:53:00,
2013-08-25 10:54:00,75.9,47.0,29.89,SE,128,2.0,3.0,36,0.00,,,0.00,Wunderground v.1.15,2013-08-25 16:54:00,
2013-08-25 10:56:00,76.1,47.9,29.89,ESE,116,2.0,3.0,37,0.00,,,0.00,Wunderground v.1.15,2013-08-25 16:56:00,
2013-08-25 10:57:00,76.2,46.5,29.89,SSW,208,2.0,5.0,35,0.00,,,0.00,Wunderground v.1.15,2013-08-25 16:57:00,
2013-08-25 10:58:00,76.1,46.5,29.89,SW,214,2.0,5.0,35,0.00,,,0.00,Wunderground v.1.15,2013-08-25 16:58:00,
2013-08-25 11:00:00,75.5,45.9,29.89,West,266,2.0,2.0,35,0.00,,,0.00,Wunderground v.1.15,2013-08-25 17:00:00,
2013-08-25 11:02:00,75.2,47.1,29.89,West,264,2.0,2.0,37,0.00,,,0.00,Wunderground v.1.15,2013-08-25 17:02:00,
2013-08-25 11:03:00,75.2,46.4,29.89,West,264,2.0,2.0,36,0.00,,,0.00,Wunderground v.1.15,2013-08-25 17:03:00,
2013-08-25 11:07:00,75.6,48.2,29.88,ESE,103,1.0,2.0,38,0.00,,,0.00,Wunderground v.1.15,2013-08-25 17:07:00,
2013-08-25 11:08:00,75.7,47.6,29.88,ESE,106,1.0,2.0,37,0.00,,,0.00,Wunderground v.1.15,2013-08-25 17:08:00,
2013-08-25 11:09:00,75.8,47.7,29.88,ESE,123,1.0,2.0,37,0.00,,,0.00,Wunderground v.1.15,2013-08-25 17:09:00,
2013-08-25 11:10:00,75.9,48.5,29.88,SE,128,1.0,1.0,38,0.00,,,0.00,Wunderground v.1.15,2013-08-25 17:10:00,
2013-08-25 11:11:00,76.0,47.1,29.88,East,88,1.0,3.0,36,0.00,,,0.00,Wunderground v.1.15,2013-08-25 17:11:00,
2013-08-25 11:15:00,75.9,45.5,29.88,ENE,78,2.0,3.0,34,0.00,,,0.00,Wunderground v.1.15,2013-08-25 17:15:00,
2013-08-25 11:16:00,75.9,45.5,29.88,East,97,2.0,3.0,34,0.00,,,0.00,Wunderground v.1.15,2013-08-25 17:16:00,
2013-08-25 11:17:00,75.9,45.5,29.88,SE,129,2.0,3.0,34,0.00,,,0.00,Wunderground v.1.15,2013-08-25 17:17:00,
2013-08-25 11:18:00,75.9,45.5,29.88,SE,128,2.0,3.0,34,0.00,,,0.00,Wunderground v.1.15,2013-08-25 17:18:00,
2013-08-25 11:24:00,76.3,45.1,29.88,SSW,198,1.0,2.0,33,0.00,,,0.00,Wunderground v.1.15,2013-08-25 17:24:00,
2013-08-25 11:25:00,76.2,45.0,29.88,SSW,204,1.0,2.0,33,0.00,,,0.00,Wunderground v.1.15,2013-08-25 17:25:00,
2013-08-25 11:28:00,76.0,45.6,29.88,SSW,211,2.0,5.0,34,0.00,,,0.00,Wunderground v.1.15,2013-08-25 17:28:00,
2013-08-25 11:29:00,75.8,46.2,29.88,SW,218,2.0,5.0,35,0.00,,,0.00,Wunderground v.1.15,2013-08-25 17:29:00,
2013-08-25 11:30:00,75.6,45.2,29.88,SW,235,3.0,5.0,34,0.00,,,0.00,Wunderground v.1.15,2013-08-25 17:30:00,
2013-08-25 11:34:00,75.1,46.3,29.88,WSW,238,4.0,5.0,36,0.00,,,0.00,Wunderground v.1.15,2013-08-25 17:34:00,
2013-08-25 11:35:00,75.1,46.3,29.89,SSW,204,4.0,5.0,36,0.00,,,0.00,Wunderground v.1.15,2013-08-25 17:35:00,
2013-08-25 11:36:00,75.0,45.5,29.88,SSW,210,5.0,5.0,35,0.00,,,0.00,Wunderground v.1.15,2013-08-25 17:36:00,
2013-08-25 11:40:00,74.6,45.1,29.88,SW,233,4.0,4.0,35,0.00,,,0.00,Wunderground v.1.15,2013-08-25 17:40:00,
2013-08-25 11:41:00,74.6,45.9,29.88,West,269,4.0,4.0,36,0.00,,,0.00,Wunderground v.1.15,2013-08-25 17:41:00,
2013-08-25 11:42:00,74.6,45.9,29.88,West,263,4.0,4.0,36,0.00,,,0.00,Wunderground v.1.15,2013-08-25 17:42:00,
2013-08-25 11:43:00,74.6,45.9,29.88,WNW,283,4.0,5.0,36,0.00,,,0.00,Wunderground v.1.15,2013-08-25 17:43:00,
2013-08-25 11:47:00,74.8,46.8,29.88,SW,225,4.0,7.0,37,0.00,,,0.00,Wunderground v.1.15,2013-08-25 17:47:00,
2013-08-25 11:49:00,74.7,46.0,29.88,WNW,288,4.0,7.0,36,0.00,,,0.00,Wunderground v.1.15,2013-08-25 17:49:00,
2013-08-25 11:51:00,74.4,45.0,29.88,SW,225,5.0,6.0,35,0.00,,,0.00,Wunderground v.1.15,2013-08-25 17:51:00,
2013-08-25 11:53:00,74.3,45.6,29.88,SSW,201,5.0,6.0,36,0.00,,,0.00,Wunderground v.1.15,2013-08-25 17:53:00,
2013-08-25 11:55:00,74.3,45.6,29.88,SW,224,4.0,6.0,36,0.00,,,0.00,Wunderground v.1.15,2013-08-25 17:55:00,
2013-08-25 11:56:00,74.3,45.6,29.88,SW,215,5.0,6.0,36,0.00,,,0.00,Wunderground v.1.15,2013-08-25 17:56:00,
2013-08-25 11:57:00,74.3,45.6,29.88,SW,236,5.0,6.0,36,0.00,,,0.00,Wunderground v.1.15,2013-08-25 17:57:00,
2013-08-25 11:59:00,74.4,45.7,29.88,WSW,252,4.0,6.0,36,0.00,,,0.00,Wunderground v.1.15,2013-08-25 17:59:00,
2013-08-25 12:01:00,74.5,45.0,29.88,WSW,247,4.0,8.0,35,0.00,,,0.00,Wunderground v.1.15,2013-08-25 18:01:00,
2013-08-25 12:03:00,74.5,44.3,29.88,SW,218,4.0,8.0,34,0.00,,,0.00,Wunderground v.1.15,2013-08-25 18:03:00,
2013-08-25 12:04:00,74.5,45.0,29.88,SW,231,4.0,8.0,35,0.00,,,0.00,Wunderground v.1.15,2013-08-25 18:04:00,
2013-08-25 12:05:00,74.5,45.0,29.87,SW,232,4.0,8.0,35,0.00,,,0.00,Wunderground v.1.15,2013-08-25 18:05:00,
2013-08-25 12:06:00,74.5,45.0,29.88,West,276,4.0,8.0,35,0.00,,,0.00,Wunderground v.1.15,2013-08-25 18:06:00,
2013-08-25 12:11:00,74.7,45.2,29.87,WSW,241,4.0,4.0,35,0.00,,,0.00,Wunderground v.1.15,2013-08-25 18:11:00,
2013-08-25 12:13:00,74.9,46.9,29.87,SSW,199,4.0,4.0,37,0.00,,,0.00,Wunderground v.1.15,2013-08-25 18:13:00,
2013-08-25 12:15:00,75.1,46.3,29.87,WNW,283,3.0,7.0,36,0.00,,,0.00,Wunderground v.1.15,2013-08-25 18:15:00,
2013-08-25 12:19:00,74.9,46.1,29.87,West,274,3.0,7.0,36,0.00,,,0.00,Wunderground v.1.15,2013-08-25 18:19:00,
2013-08-25 12:20:00,74.8,45.3,29.87,West,259,3.0,3.0,35,0.00,,,0.00,Wunderground v.1.15,2013-08-25 18:20:00,
2013-08-25 12:22:00,74.8,46.1,29.87,West,274,3.0,3.0,36,0.00,,,0.00,Wunderground v.1.15,2013-08-25 18:22:00,
2013-08-25 12:25:00,75.0,45.5,29.87,South,190,3.0,3.0,35,0.00,,,0.00,Wunderground v.1.15,2013-08-25 18:25:00,
2013-08-25 12:26:00,75.1,46.3,29.87,WSW,246,3.0,3.0,36,0.00,,,0.00,Wunderground v.1.15,2013-08-25 18:26:00,
2013-08-25 12:27:00,75.2,46.4,29.87,SW,214,3.0,3.0,36,0.00,,,0.00,Wunderground v.1.15,2013-08-25 18:27:00,
2013-08-25 12:29:00,75.4,45.1,29.87,WNW,286,3.0,4.0,34,0.00,,,0.00,Wunderground v.1.15,2013-08-25 18:29:00,
2013-08-25 12:31:00,75.2,44.9,29.87,NW,312,3.0,3.0,34,0.00,,,0.00,Wunderground v.1.15,2013-08-25 18:31:00,
2013-08-25 12:33:00,74.9,45.4,29.86,North,358,3.0,3.0,35,0.00,,,0.00,Wunderground v.1.15,2013-08-25 18:33:00,
2013-08-25 12:36:00,74.9,46.1,29.86,ESE,111,2.0,3.0,36,0.00,,,0.00,Wunderground v.1.15,2013-08-25 18:36:00,
2013-08-25 12:37:00,75.0,47.0,29.86,WSW,239,2.0,3.0,37,0.00,,,0.00,Wunderground v.1.15,2013-08-25 18:37:00,
2013-08-25 12:38:00,75.1,44.8,29.87,North,356,2.0,3.0,34,0.00,,,0.00,Wunderground v.1.15,2013-08-25 18:38:00,
2013-08-25 12:40:00,75.1,45.6,29.87,WNW,291,2.0,2.0,35,0.00,,,0.00,Wunderground v.1.15,2013-08-25 18:40:00,
2013-08-25 12:43:00,75.1,44.8,29.87,East,82,2.0,3.0,34,0.00,,,0.00,Wunderground v.1.15,2013-08-25 18:43:00,
2013-08-25 12:44:00,75.2,45.7,29.87,ESE,121,2.0,3.0,35,0.00,,,0.00,Wunderground v.1.15,2013-08-25 18:44:00,
2013-08-25 12:48:00,75.6,46.0,29.86,NE,52,1.0,3.0,35,0.00,,,0.00,Wunderground v.1.15,2013-08-25 18:48:00,
2013-08-25 12:49:00,75.6,46.0,29.87,ESE,103,1.0,3.0,35,0.00,,,0.00,Wunderground v.1.15,2013-08-25 18:49:00,
2013-08-25 12:54:00,75.7,46.8,29.87,East,91,1.0,3.0,36,0.00,,,0.00,Wunderground v.1.15,2013-08-25 18:54:00,
2013-08-25 12:55:00,75.6,46.0,29.87,ESE,116,2.0,3.0,35,0.00,,,0.00,Wunderground v.1.15,2013-08-25 18:55:00,
2013-08-25 12:56:00,75.6,46.8,29.87,East,91,2.0,3.0,36,0.00,,,0.00,Wunderground v.1.15,2013-08-25 18:56:00,
2013-08-25 12:59:00,75.7,46.1,29.87,ESE,116,2.0,3.0,35,0.00,,,0.00,Wunderground v.1.15,2013-08-25 18:59:00,
2013-08-25 13:00:00,75.8,47.7,29.87,East,95,2.0,2.0,37,0.00,,,0.00,Wunderground v.1.15,2013-08-25 19:00:00,
2013-08-25 13:02:00,75.9,49.2,29.86,ESE,116,1.0,2.0,39,0.00,,,0.00,Wunderground v.1.15,2013-08-25 19:02:00,
2013-08-25 13:05:00,75.8,46.9,29.86,East,89,1.0,4.0,36,0.00,,,0.00,Wunderground v.1.15,2013-08-25 19:05:00,
2013-08-25 13:06:00,75.7,46.8,29.86,ESE,106,2.0,4.0,36,0.00,,,0.00,Wunderground v.1.15,2013-08-25 19:06:00,
2013-08-25 13:09:00,75.1,47.0,29.86,East,89,2.0,4.0,37,0.00,,,0.00,Wunderground v.1.15,2013-08-25 19:09:00,
2013-08-25 13:10:00,75.0,47.0,29.86,ESE,121,2.0,2.0,37,0.00,,,0.00,Wunderground v.1.15,2013-08-25 19:10:00,
2013-08-25 13:16:00,75.0,47.0,29.86,East,86,3.0,3.0,37,0.00,,,0.00,Wunderground v.1.15,2013-08-25 19:16:00,
2013-08-25 13:18:00,74.8,46.8,29.86,ENE,74,2.0,4.0,37,0.00,,,0.00,Wunderground v.1.15,2013-08-25 19:18:00,
2013-08-25 13:19:00,74.8,47.5,29.86,East,94,2.0,4.0,38,0.00,,,0.00,Wunderground v.1.15,2013-08-25 19:19:00,
2013-08-25 13:21:00,74.8,47.5,29.86,ENE,73,2.0,3.0,38,0.00,,,0.00,Wunderground v.1.15,2013-08-25 19:21:00,
2013-08-25 13:23:00,74.8,47.5,29.86,ENE,70,2.0,3.0,38,0.00,,,0.00,Wunderground v.1.15,2013-08-25 19:23:00,
2013-08-25 13:24:00,74.9,46.9,29.86,ENE,68,2.0,3.0,37,0.00,,,0.00,Wunderground v.1.15,2013-08-25 19:24:00,
2013-08-25 13:28:00,75.1,48.4,29.86,SE,143,2.0,5.0,39,0.00,,,0.00,Wunderground v.1.15,2013-08-25 19:28:00,
2013-08-25 13:29:00,75.2,48.5,29.86,ESE,109,2.0,5.0,39,0.00,,,0.00,Wunderground v.1.15,2013-08-25 19:29:00,
2013-08-25 13:30:00,75.3,47.2,29.86,ESE,108,2.0,2.0,37,0.00,,,0.00,Wunderground v.1.15,2013-08-25 19:30:00,
2013-08-25 13:36:00,76.2,49.4,29.86,ESE,106,2.0,3.0,39,0.00,,,0.00,Wunderground v.1.15,2013-08-25 19:36:00,
2013-08-25 13:37:00,76.5,49.0,29.86,ENE,60,2.0,3.0,38,0.00,,,0.00,Wunderground v.1.15,2013-08-25 19:37:00,
2013-08-25 13:40:00,76.9,48.6,29.86,ESE,111,2.0,4.0,37,0.00,,,0.00,Wunderground v.1.15,2013-08-25 19:40:00,
2013-08-25 13:41:00,77.0,48.0,29.85,ESE,116,2.0,4.0,36,0.00,,,0.00,Wunderground v.1.15,2013-08-25 19:41:00,
2013-08-25 13:43:00,77.2,47.4,29.85,ESE,116,2.0,4.0,35,0.00,,,0.00,Wunderground v.1.15,2013-08-25 19:43:00,
2013-08-25 13:45:00,77.2,46.7,29.85,ENE,62,2.0,8.0,34,0.00,,,0.00,Wunderground v.1.15,2013-08-25 19:45:00,
2013-08-25 13:48:00,77.2,47.4,29.85,East,89,3.0,8.0,35,0.00,,,0.00,Wunderground v.1.15,2013-08-25 19:48:00,
2013-08-25 13:49:00,77.1,46.6,29.85,ESE,103,3.0,8.0,34,0.00,,,0.00,Wunderground v.1.15,2013-08-25 19:49:00,
2013-08-25 13:51:00,76.8,46.3,29.85,North,9,3.0,3.0,34,0.00,,,0.00,Wunderground v.1.15,2013-08-25 19:51:00,
2013-08-25 13:54:00,76.7,47.7,29.85,East,95,3.0,3.0,36,0.00,,,0.00,Wunderground v.1.15,2013-08-25 19:54:00,
2013-08-25 13:55:00,76.7,47.7,29.85,NE,36,3.0,3.0,36,0.00,,,0.00,Wunderground v.1.15,2013-08-25 19:55:00,
2013-08-25 13:57:00,76.8,47.1,29.85,East,82,3.0,6.0,35,0.00,,,0.00,Wunderground v.1.15,2013-08-25 19:57:00,
2013-08-25 14:00:00,76.8,47.1,29.85,ENE,72,3.0,3.0,35,0.00,,,0.00,Wunderground v.1.15,2013-08-25 20:00:00,
2013-08-25 14:01:00,76.7,46.2,29.85,NE,50,3.0,3.0,34,0.00,,,0.00,Wunderground v.1.15,2013-08-25 20:01:00,
2013-08-25 14:04:00,76.4,45.9,29.85,NNE,18,3.0,3.0,34,0.00,,,0.00,Wunderground v.1.15,2013-08-25 20:04:00,
2013-08-25 14:05:00,76.3,46.6,29.85,NNE,23,3.0,3.0,35,0.00,,,0.00,Wunderground v.1.15,2013-08-25 20:05:00,
2013-08-25 14:06:00,76.2,46.5,29.85,ENE,75,3.0,3.0,35,0.00,,,0.00,Wunderground v.1.15,2013-08-25 20:06:00,
2013-08-25 14:08:00,76.1,45.7,29.85,ENE,75,3.0,3.0,34,0.00,,,0.00,Wunderground v.1.15,2013-08-25 20:08:00,
2013-08-25 14:11:00,76.1,47.2,29.85,East,93,2.0,2.0,36,0.00,,,0.00,Wunderground v.1.15,2013-08-25 20:11:00,
2013-08-25 14:15:00,76.1,47.2,29.85,ESE,109,2.0,3.0,36,0.00,,,0.00,Wunderground v.1.15,2013-08-25 20:15:00,
2013-08-25 14:17:00,76.0,47.1,29.85,ESE,115,2.0,3.0,36,0.00,,,0.00,Wunderground v.1.15,2013-08-25 20:17:00,
2013-08-25 14:18:00,76.0,47.1,29.85,ESE,108,2.0,3.0,36,0.00,,,0.00,Wunderground v.1.15,2013-08-25 20:18:00,
2013-08-25 14:21:00,75.9,47.0,29.85,ESE,119,3.0,3.0,36,0.00,,,0.00,Wunderground v.1.15,2013-08-25 20:21:00,
2013-08-25 14:22:00,75.9,47.8,29.85,East,87,3.0,3.0,37,0.00,,,0.00,Wunderground v.1.15,2013-08-25 20:22:00,
2013-08-25 14:23:00,75.9,47.8,29.85,East,101,3.0,3.0,37,0.00,,,0.00,Wunderground v.1.15,2013-08-25 20:23:00,
2013-08-25 14:24:00,75.9,47.0,29.85,East,98,3.0,3.0,36,0.00,,,0.00,Wunderground v.1.15,2013-08-25 20:24:00,
2013-08-25 14:27:00,75.8,46.9,29.85,East,96,3.0,5.0,36,0.00,,,0.00,Wunderground v.1.15,2013-08-25 20:27:00,
2013-08-25 14:29:00,75.7,46.8,29.85,SE,126,3.0,5.0,36,0.00,,,0.00,Wunderground v.1.15,2013-08-25 20:29:00,
2013-08-25 14:30:00,75.7,46.8,29.85,ESE,103,3.0,3.0,36,0.00,,,0.00,Wunderground v.1.15,2013-08-25 20:30:00,
2013-08-25 14:31:00,75.7,47.6,29.85,ESE,105,3.0,8.0,37,0.00,,,0.00,Wunderground v.1.15,2013-08-25 20:31:00,
2013-08-25 14:32:00,75.7,46.8,29.85,East,85,4.0,8.0,36,0.00,,,0.00,Wunderground v.1.15,2013-08-25 20:32:00,
2013-08-25 14:36:00,75.9,47.8,29.85,East,96,3.0,8.0,37,0.00,,,0.00,Wunderground v.1.15,2013-08-25 20:36:00,
2013-08-25 14:37:00,75.9,47.8,29.85,East,90,3.0,8.0,37,0.00,,,0.00,Wunderground v.1.15,2013-08-25 20:37:00,
2013-08-25 14:41:00,75.7,47.6,29.85,East,96,4.0,4.0,37,0.00,,,0.00,Wunderground v.1.15,2013-08-25 20:41:00,
2013-08-25 14:42:00,75.7,47.6,29.85,ENE,75,4.0,5.0,37,0.00,,,0.00,Wunderground v.1.15,2013-08-25 20:42:00,
2013-08-25 14:43:00,75.7,46.8,29.85,SE,128,4.0,5.0,36,0.00,,,0.00,Wunderground v.1.15,2013-08-25 20:43:00,
2013-08-25 14:44:00,75.6,47.5,29.85,East,98,4.0,5.0,37,0.00,,,0.00,Wunderground v.1.15,2013-08-25 20:44:00,
2013-08-25 14:47:00,75.7,46.8,29.85,SE,145,3.0,5.0,36,0.00,,,0.00,Wunderground v.1.15,2013-08-25 20:47:00,
2013-08-25 14:49:00,75.7,46.8,29.85,East,90,3.0,7.0,36,0.00,,,0.00,Wunderground v.1.15,2013-08-25 20:49:00,
2013-08-25 14:50:00,75.6,46.8,29.85,SE,133,3.0,4.0,36,0.00,,,0.00,Wunderground v.1.15,2013-08-25 20:50:00,
2013-08-25 14:52:00,75.6,47.5,29.85,ESE,111,3.0,4.0,37,0.00,,,0.00,Wunderground v.1.15,2013-08-25 20:52:00,
2013-08-25 14:54:00,75.6,46.8,29.85,ESE,117,3.0,6.0,36,0.00,,,0.00,Wunderground v.1.15,2013-08-25 20:54:00,
2013-08-25 14:58:00,75.7,48.3,29.85,SSE,147,3.0,6.0,38,0.00,,,0.00,Wunderground v.1.15,2013-08-25 20:58:00,
2013-08-25 14:59:00,75.7,47.6,29.85,ESE,118,3.0,6.0,37,0.00,,,0.00,Wunderground v.1.15,2013-08-25 20:59:00,
2013-08-25 15:00:00,75.8,46.9,29.84,East,79,3.0,5.0,36,0.00,,,0.00,Wunderground v.1.15,2013-08-25 21:00:00,
2013-08-25 15:04:00,75.7,47.6,29.84,SE,134,3.0,5.0,37,0.00,,,0.00,Wunderground v.1.15,2013-08-25 21:04:00,
2013-08-25 15:06:00,75.7,46.8,29.85,SE,133,3.0,5.0,36,0.00,,,0.00,Wunderground v.1.15,2013-08-25 21:06:00,
2013-08-25 15:07:00,75.6,46.8,29.85,ESE,118,3.0,5.0,36,0.00,,,0.00,Wunderground v.1.15,2013-08-25 21:07:00,
2013-08-25 15:09:00,75.5,47.4,29.85,East,88,3.0,6.0,37,0.00,,,0.00,Wunderground v.1.15,2013-08-25 21:09:00,
2013-08-25 15:12:00,75.4,47.3,29.84,ENE,75,3.0,5.0,37,0.00,,,0.00,Wunderground v.1.15,2013-08-25 21:12:00,
2013-08-25 15:14:00,75.4,47.3,29.84,SSE,155,3.0,5.0,37,0.00,,,0.00,Wunderground v.1.15,2013-08-25 21:14:00,
2013-08-25 15:16:00,75.3,47.2,29.85,SE,134,3.0,5.0,37,0.00,,,0.00,Wunderground v.1.15,2013-08-25 21:16:00,
2013-08-25 15:19:00,75.0,47.0,29.84,East,96,3.0,5.0,37,0.00,,,0.00,Wunderground v.1.15,2013-08-25 21:19:00,
2013-08-25 15:20:00,74.9,46.9,29.84,ESE,113,4.0,5.0,37,0.00,,,0.00,Wunderground v.1.15,2013-08-25 21:20:00,
2013-08-25 15:22:00,74.8,48.2,29.84,ESE,122,4.0,5.0,39,0.00,,,0.00,Wunderground v.1.15,2013-08-25 21:22:00,
2013-08-25 15:23:00,74.8,47.5,29.84,SE,131,4.0,5.0,38,0.00,,,0.00,Wunderground v.1.15,2013-08-25 21:23:00,
2013-08-25 15:25:00,74.6,47.3,29.84,East,98,4.0,7.0,38,0.00,,,0.00,Wunderground v.1.15,2013-08-25 21:25:00,
2013-08-25 15:28:00,74.4,47.8,29.85,SE,128,5.0,7.0,39,0.00,,,0.00,Wunderground v.1.15,2013-08-25 21:28:00,
2013-08-25 15:29:00,74.3,47.7,29.85,SE,128,5.0,7.0,39,0.00,,,0.00,Wunderground v.1.15,2013-08-25 21:29:00,
2013-08-25 15:30:00,74.2,47.6,29.85,SE,137,5.0,5.0,39,0.00,,,0.00,Wunderground v.1.15,2013-08-25 21:30:00,
2013-08-25 15:32:00,74.0,48.8,29.85,SSW,203,5.0,5.0,41,0.00,,,0.00,Wunderground v.1.15,2013-08-25 21:32:00,
2013-08-25 15:35:00,73.7,48.5,29.85,ESE,118,5.0,8.0,41,0.00,,,0.00,Wunderground v.1.15,2013-08-25 21:35:00,
2013-08-25 15:36:00,73.6,49.7,29.85,SSW,212,5.0,8.0,43,0.00,,,0.00,Wunderground v.1.15,2013-08-25 21:36:00,
2013-08-25 15:38:00,73.3,48.8,29.85,SW,214,5.0,8.0,42,0.00,,,0.00,Wunderground v.1.15,2013-08-25 21:38:00,
2013-08-25 15:39:00,73.1,48.6,29.85,SW,221,5.0,10.0,42,0.00,,,0.00,Wunderground v.1.15,2013-08-25 21:39:00,
2013-08-25 15:41:00,72.8,48.4,29.85,South,173,5.0,5.0,42,0.00,,,0.00,Wunderground v.1.15,2013-08-25 21:41:00,
2013-08-25 15:43:00,72.7,48.9,29.85,South,188,5.0,7.0,43,0.00,,,0.00,Wunderground v.1.15,2013-08-25 21:43:00,
2013-08-25 15:44:00,72.5,49.3,29.86,SW,215,5.0,7.0,44,0.00,,,0.00,Wunderground v.1.15,2013-08-25 21:44:00,
2013-08-25 15:45:00,72.4,49.9,29.86,South,176,5.0,7.0,45,0.00,,,0.00,Wunderground v.1.15,2013-08-25 21:45:00,
2013-08-25 15:47:00,72.0,50.7,29.86,ESE,106,5.0,7.0,47,0.00,,,0.00,Wunderground v.1.15,2013-08-25 21:47:00,
2013-08-25 15:52:00,70.8,50.7,29.86,SE,125,4.0,8.0,49,0.00,,,0.00,Wunderground v.1.15,2013-08-25 21:52:00,
2013-08-25 15:53:00,70.5,50.4,29.86,SW,215,5.0,8.0,49,0.00,,,0.00,Wunderground v.1.15,2013-08-25 21:53:00,
2013-08-25 15:55:00,69.9,52.0,29.86,SE,143,4.0,8.0,53,0.00,,,0.00,Wunderground v.1.15,2013-08-25 21:55:00,
2013-08-25 15:56:00,69.6,51.7,29.86,SW,217,5.0,8.0,53,0.00,,,0.00,Wunderground v.1.15,2013-08-25 21:56:00,
2013-08-25 15:59:00,68.7,51.4,29.86,SSW,203,5.0,9.0,54,0.00,,,0.00,Wunderground v.1.15,2013-08-25 21:59:00,
2013-08-25 16:00:00,68.5,51.7,29.86,SE,146,5.0,5.0,55,0.00,,,0.00,Wunderground v.1.15,2013-08-25 22:00:00,
2013-08-25 16:01:00,68.3,52.0,29.86,South,184,5.0,5.0,56,0.00,,,0.00,Wunderground v.1.15,2013-08-25 22:01:00,
2013-08-25 16:03:00,67.8,52.0,29.87,SW,231,5.0,7.0,57,0.00,,,0.00,Wunderground v.1.15,2013-08-25 22:03:00,
2013-08-25 16:05:00,67.5,51.7,29.86,West,264,5.0,10.0,57,0.00,,,0.00,Wunderground v.1.15,2013-08-25 22:05:00,
2013-08-25 16:07:00,67.2,52.8,29.86,West,273,6.0,10.0,60,0.00,,,0.00,Wunderground v.1.15,2013-08-25 22:07:00,
2013-08-25 16:10:00,66.6,53.6,29.86,WNW,290,5.0,6.0,63,0.00,,,0.00,Wunderground v.1.15,2013-08-25 22:10:00,
2013-08-25 16:11:00,66.4,53.0,29.86,WSW,250,5.0,6.0,62,0.00,,,0.00,Wunderground v.1.15,2013-08-25 22:11:00,
2013-08-25 16:13:00,66.0,53.0,29.86,West,270,5.0,6.0,63,0.00,,,0.00,Wunderground v.1.15,2013-08-25 22:13:00,
2013-08-25 16:16:00,65.6,52.7,29.85,WNW,300,4.0,6.0,63,0.00,,,0.01,Wunderground v.1.15,2013-08-25 22:16:00,
2013-08-25 16:17:00,65.6,53.5,29.85,WNW,301,4.0,6.0,65,0.00,,,0.01,Wunderground v.1.15,2013-08-25 22:17:00,
2013-08-25 16:18:00,65.5,53.8,29.85,NW,319,4.0,6.0,66,0.00,,,0.01,Wunderground v.1.15,2013-08-25 22:18:00,
2013-08-25 16:21:00,65.3,53.6,29.85,NW,308,4.0,5.0,66,0.00,,,0.01,Wunderground v.1.15,2013-08-25 22:21:00,
2013-08-25 16:23:00,65.2,54.0,29.85,WNW,301,4.0,5.0,67,0.00,,,0.01,Wunderground v.1.15,2013-08-25 22:23:00,
2013-08-25 16:24:00,65.2,53.6,29.85,WNW,297,3.0,5.0,66,0.00,,,0.01,Wunderground v.1.15,2013-08-25 22:24:00,
2013-08-25 16:25:00,65.2,53.6,29.85,WNW,295,3.0,5.0,66,0.00,,,0.01,Wunderground v.1.15,2013-08-25 22:25:00,
2013-08-25 16:28:00,65.8,55.3,29.84,NE,36,3.0,5.0,69,0.00,,,0.01,Wunderground v.1.15,2013-08-25 22:28:00,
2013-08-25 16:30:00,66.4,55.9,29.84,West,274,3.0,3.0,69,0.00,,,0.01,Wunderground v.1.15,2013-08-25 22:30:00,
2013-08-25 16:32:00,67.1,54.5,29.84,WSW,255,3.0,3.0,64,0.00,,,0.01,Wunderground v.1.15,2013-08-25 22:32:00,
2013-08-25 16:36:00,67.8,53.4,29.84,West,274,3.0,4.0,60,0.00,,,0.01,Wunderground v.1.15,2013-08-25 22:36:00,
2013-08-25 16:37:00,67.9,54.0,29.84,West,277,3.0,6.0,61,0.00,,,0.01,Wunderground v.1.15,2013-08-25 22:37:00,
2013-08-25 16:38:00,68.0,52.7,29.84,West,270,3.0,6.0,58,0.00,,,0.01,Wunderground v.1.15,2013-08-25 22:38:00,
2013-08-25 16:40:00,68.4,54.4,29.84,WSW,242,3.0,3.0,61,0.00,,,0.01,Wunderground v.1.15,2013-08-25 22:40:00,
2013-08-25 16:42:00,69.0,53.1,29.84,West,270,3.0,4.0,57,0.00,,,0.01,Wunderground v.1.15,2013-08-25 22:42:00,
2013-08-25 16:43:00,69.2,51.8,29.84,WNW,284,3.0,4.0,54,0.00,,,0.01,Wunderground v.1.15,2013-08-25 22:43:00,
2013-08-25 16:44:00,69.3,51.9,29.84,West,269,3.0,4.0,54,0.00,,,0.01,Wunderground v.1.15,2013-08-25 22:44:00,
2013-08-25 16:48:00,69.7,51.8,29.84,West,267,3.0,8.0,53,0.00,,,0.01,Wunderground v.1.15,2013-08-25 22:48:00,
2013-08-25 16:49:00,70.0,51.0,29.84,West,280,3.0,8.0,51,0.00,,,0.01,Wunderground v.1.15,2013-08-25 22:49:00,
2013-08-25 16:51:00,70.1,51.1,29.84,West,278,3.0,4.0,51,0.00,,,0.01,Wunderground v.1.15,2013-08-25 22:51:00,
2013-08-25 16:52:00,70.2,50.7,29.84,WNW,284,3.0,4.0,50,0.00,,,0.01,Wunderground v.1.15,2013-08-25 22:52:00,
2013-08-25 16:54:00,70.5,51.0,29.84,NNW,340,3.0,4.0,50,0.00,,,0.01,Wunderground v.1.15,2013-08-25 22:54:00,
2013-08-25 16:56:00,71.1,51.5,29.84,West,271,2.0,4.0,50,0.00,,,0.01,Wunderground v.1.15,2013-08-25 22:56:00,
2013-08-25 16:57:00,71.4,51.2,29.84,SW,232,2.0,4.0,49,0.00,,,0.01,Wunderground v.1.15,2013-08-25 22:57:00,
2013-08-25 17:00:00,72.1,50.2,29.84,WSW,255,2.0,2.0,46,0.00,,,0.01,Wunderground v.1.15,2013-08-25 23:00:00,
2013-08-25 17:01:00,72.2,50.8,29.84,SSW,201,2.0,4.0,47,0.00,,,0.01,Wunderground v.1.15,2013-08-25 23:01:00,
2013-08-25 17:02:00,72.2,50.3,29.84,West,278,2.0,4.0,46,0.00,,,0.01,Wunderground v.1.15,2013-08-25 23:02:00,
2013-08-25 17:03:00,72.1,49.0,29.84,West,270,2.0,4.0,44,0.00,,,0.01,Wunderground v.1.15,2013-08-25 23:03:00,
2013-08-25 17:06:00,72.0,49.5,29.84,SSE,156,2.0,4.0,45,0.00,,,0.01,Wunderground v.1.15,2013-08-25 23:06:00,
2013-08-25 17:09:00,72.1,49.6,29.84,West,280,2.0,4.0,45,0.00,,,0.01,Wunderground v.1.15,2013-08-25 23:09:00,
2013-08-25 17:10:00,72.0,48.9,29.84,West,277,2.0,3.0,44,0.00,,,0.01,Wunderground v.1.15,2013-08-25 23:10:00,
2013-08-25 17:11:00,72.0,48.3,29.84,WSW,249,2.0,3.0,43,0.00,,,0.01,Wunderground v.1.15,2013-08-25 23:11:00,
2013-08-25 17:12:00,71.8,48.7,29.84,SSW,211,2.0,4.0,44,0.00,,,0.01,Wunderground v.1.15,2013-08-25 23:12:00,
2013-08-25 17:15:00,71.6,48.5,29.84,WSW,239,2.0,5.0,44,0.00,,,0.01,Wunderground v.1.15,2013-08-25 23:15:00,
2013-08-25 17:16:00,71.5,48.4,29.84,WSW,242,3.0,5.0,44,0.00,,,0.01,Wunderground v.1.15,2013-08-25 23:16:00,
2013-08-25 17:17:00,71.5,48.4,29.84,West,275,3.0,5.0,44,0.00,,,0.01,Wunderground v.1.15,2013-08-25 23:17:00,
2013-08-25 17:18:00,71.4,48.3,29.84,SW,225,3.0,5.0,44,0.00,,,0.01,Wunderground v.1.15,2013-08-25 23:18:00,
2013-08-25 17:23:00,71.4,48.9,29.84,SSW,211,2.0,3.0,45,0.00,,,0.01,Wunderground v.1.15,2013-08-25 23:23:00,
2013-08-25 17:24:00,71.3,48.9,29.84,SW,235,2.0,3.0,45,0.00,,,0.01,Wunderground v.1.15,2013-08-25 23:24:00,
2013-08-25 17:25:00,71.3,48.9,29.85,SSW,199,2.0,3.0,45,0.00,,,0.01,Wunderground v.1.15,2013-08-25 23:25:00,
2013-08-25 17:28:00,71.1,49.3,29.85,SW,231,2.0,4.0,46,0.00,,,0.01,Wunderground v.1.15,2013-08-25 23:28:00,
2013-08-25 17:30:00,71.0,49.7,29.85,South,181,2.0,2.0,47,0.00,,,0.01,Wunderground v.1.15,2013-08-25 23:30:00,
2013-08-25 17:32:00,70.8,50.1,29.85,SSW,208,3.0,5.0,48,0.00,,,0.01,Wunderground v.1.15,2013-08-25 23:32:00,
2013-08-25 17:34:00,70.6,48.8,29.86,SW,219,3.0,6.0,46,0.00,,,0.01,Wunderground v.1.15,2013-08-25 23:34:00,
2013-08-25 17:35:00,70.5,49.3,29.86,SSW,200,3.0,6.0,47,0.00,,,0.01,Wunderground v.1.15,2013-08-25 23:35:00,
2013-08-25 17:37:00,70.4,49.2,29.86,SW,219,4.0,7.0,47,0.00,,,0.01,Wunderground v.1.15,2013-08-25 23:37:00,
2013-08-25 17:40:00,70.2,49.0,29.87,South,174,5.0,5.0,47,0.00,,,0.01,Wunderground v.1.15,2013-08-25 23:40:00,
2013-08-25 17:42:00,70.2,50.1,29.87,SW,232,5.0,7.0,49,0.00,,,0.01,Wunderground v.1.15,2013-08-25 23:42:00,
2013-08-25 17:44:00,70.0,50.5,29.88,SSW,210,5.0,9.0,50,0.00,,,0.01,Wunderground v.1.15,2013-08-25 23:44:00,
2013-08-25 17:45:00,69.9,50.4,29.88,WNW,298,5.0,9.0,50,0.00,,,0.01,Wunderground v.1.15,2013-08-25 23:45:00,
2013-08-25 17:46:00,69.4,51.5,29.88,SW,224,6.0,16.0,53,0.00,,,0.01,Wunderground v.1.15,2013-08-25 23:46:00,
2013-08-25 17:47:00,68.9,52.1,29.89,West,271,7.0,16.0,55,0.00,,,0.01,Wunderground v.1.15,2013-08-25 23:47:00,
2013-08-25 17:49:00,67.7,52.9,29.89,West,262,7.0,16.0,59,0.00,,,0.01,Wunderground v.1.15,2013-08-25 23:49:00,
2013-08-25 17:50:00,67.0,53.1,29.89,WSW,255,8.0,14.0,61,0.00,,,0.01,Wunderground v.1.15,2013-08-25 23:50:00,
2013-08-25 17:52:00,65.6,53.5,29.89,West,274,9.0,14.0,65,0.00,,,0.02,Wunderground v.1.15,2013-08-25 23:52:00,
2013-08-25 17:56:00,63.6,53.6,29.88,West,273,9.0,14.0,70,0.10,,,0.02,Wunderground v.1.15,2013-08-25 23:56:00,
2013-08-25 17:58:00,63.0,53.1,29.88,WNW,288,10.0,14.0,70,0.10,,,0.03,Wunderground v.1.15,2013-08-25 23:58:00,
2013-08-25 18:00:00,62.4,53.3,29.88,West,276,10.0,10.0,72,0.26,,,0.04,Wunderground v.1.15,2013-08-26 00:00:00,
2013-08-25 18:02:00,61.8,53.8,29.87,NW,312,9.0,10.0,75,0.23,,,0.05,Wunderground v.1.15,2013-08-26 00:02:00,
2013-08-25 18:05:00,60.9,54.3,29.87,NW,310,7.0,10.0,79,0.14,,,0.05,Wunderground v.1.15,2013-08-26 00:05:00,
2013-08-25 18:06:00,60.7,54.5,29.87,NW,319,7.0,10.0,80,0.12,,,0.05,Wunderground v.1.15,2013-08-26 00:06:00,
2013-08-25 18:08:00,60.3,54.8,29.87,NW,307,4.0,10.0,82,0.11,,,0.06,Wunderground v.1.15,2013-08-26 00:08:00,
2013-08-25 18:12:00,60.0,55.2,29.87,WNW,300,3.0,3.0,84,0.11,,,0.06,Wunderground v.1.15,2013-08-26 00:12:00,
2013-08-25 18:14:00,60.1,55.6,29.87,WNW,285,2.0,3.0,85,0.08,,,0.06,Wunderground v.1.15,2013-08-26 00:14:00,
2013-08-25 18:15:00,60.1,55.2,29.87,WNW,285,2.0,3.0,84,0.07,,,0.06,Wunderground v.1.15,2013-08-26 00:15:00,
2013-08-25 18:16:00,60.2,55.3,29.87,WNW,285,1.0,3.0,84,0.06,,,0.06,Wunderground v.1.15,2013-08-26 00:16:00,
2013-08-25 18:18:00,60.4,56.2,29.87,SSE,156,1.0,3.0,86,0.05,,,0.06,Wunderground v.1.15,2013-08-26 00:18:00,
2013-08-25 18:21:00,60.6,56.4,29.87,South,169,1.0,2.0,86,0.04,,,0.06,Wunderground v.1.15,2013-08-26 00:21:00,
2013-08-25 18:22:00,60.6,56.1,29.87,SW,236,1.0,2.0,85,0.04,,,0.06,Wunderground v.1.15,2013-08-26 00:22:00,
2013-08-25 18:24:00,60.8,56.3,29.87,SSW,203,1.0,2.0,85,0.00,,,0.06,Wunderground v.1.15,2013-08-26 00:24:00,
2013-08-25 18:25:00,60.8,55.9,29.87,ESE,121,1.0,2.0,84,0.00,,,0.06,Wunderground v.1.15,2013-08-26 00:25:00,
2013-08-25 18:26:00,60.9,55.7,29.87,ESE,120,1.0,2.0,83,0.00,,,0.06,Wunderground v.1.15,2013-08-26 00:26:00,
2013-08-25 18:31:00,61.3,56.1,29.87,ESE,120,0.0,1.0,83,0.00,,,0.06,Wunderground v.1.15,2013-08-26 00:31:00,
2013-08-25 18:32:00,61.4,55.9,29.87,ESE,120,0.0,1.0,82,0.00,,,0.06,Wunderground v.1.15,2013-08-26 00:32:00,
2013-08-25 18:33:00,61.5,56.0,29.87,ESE,120,0.0,1.0,82,0.00,,,0.06,Wunderground v.1.15,2013-08-26 00:33:00,
2013-08-25 18:34:00,61.5,55.3,29.87,ESE,120,0.0,1.0,80,0.00,,,0.06,Wunderground v.1.15,2013-08-26 00:34:00,
2013-08-25 18:37:00,61.8,55.9,29.87,ESE,120,0.0,1.0,81,0.00,,,0.06,Wunderground v.1.15,2013-08-26 00:37:00,
2013-08-25 18:38:00,61.9,56.3,29.86,ESE,120,0.0,1.0,82,0.00,,,0.06,Wunderground v.1.15,2013-08-26 00:38:00,
2013-08-25 18:41:00,62.1,56.9,29.86,ESE,120,0.0,0.0,83,0.00,,,0.06,Wunderground v.1.15,2013-08-26 00:41:00,
2013-08-25 18:42:00,62.1,56.9,29.86,ESE,120,0.0,0.0,83,0.00,,,0.06,Wunderground v.1.15,2013-08-26 00:42:00,
2013-08-25 18:43:00,62.1,56.9,29.86,ESE,120,0.0,0.0,83,0.00,,,0.06,Wunderground v.1.15,2013-08-26 00:43:00,
2013-08-25 18:44:00,62.1,56.9,29.86,ESE,120,0.0,0.0,83,0.00,,,0.06,Wunderground v.1.15,2013-08-26 00:44:00,
2013-08-25 18:49:00,61.8,57.2,29.86,WNW,295,0.0,2.0,85,0.00,,,0.06,Wunderground v.1.15,2013-08-26 00:49:00,
2013-08-25 18:51:00,61.7,57.5,29.86,WNW,293,1.0,1.0,86,0.00,,,0.06,Wunderground v.1.15,2013-08-26 00:51:00,
2013-08-25 18:53:00,61.6,57.0,29.86,WNW,293,1.0,1.0,85,0.00,,,0.06,Wunderground v.1.15,2013-08-26 00:53:00,
2013-08-25 18:54:00,61.6,57.4,29.86,WNW,292,1.0,1.0,86,0.00,,,0.06,Wunderground v.1.15,2013-08-26 00:54:00,
2013-08-25 18:56:00,61.6,57.0,29.86,WNW,294,1.0,1.0,85,0.00,,,0.06,Wunderground v.1.15,2013-08-26 00:56:00,
2013-08-25 18:58:00,61.7,56.8,29.86,WNW,294,1.0,1.0,84,0.00,,,0.06,Wunderground v.1.15,2013-08-26 00:58:00,
2013-08-25 18:59:00,61.7,57.1,29.86,West,278,1.0,1.0,85,0.00,,,0.06,Wunderground v.1.15,2013-08-26 00:59:00,
2013-08-25 19:01:00,61.8,57.2,29.86,West,263,1.0,1.0,85,0.00,,,0.06,Wunderground v.1.15,2013-08-26 01:01:00,
2013-08-25 19:02:00,61.8,56.9,29.86,West,263,1.0,1.0,84,0.00,,,0.06,Wunderground v.1.15,2013-08-26 01:02:00,
2013-08-25 19:06:00,61.9,56.3,29.86,West,266,1.0,2.0,82,0.00,,,0.06,Wunderground v.1.15,2013-08-26 01:06:00,
2013-08-25 19:07:00,62.0,56.4,29.86,West,266,1.0,2.0,82,0.00,,,0.06,Wunderground v.1.15,2013-08-26 01:07:00,
2013-08-25 19:08:00,62.1,56.5,29.86,WNW,285,1.0,2.0,82,0.00,,,0.06,Wunderground v.1.15,2013-08-26 01:08:00,
2013-08-25 19:13:00,62.5,56.9,29.86,WSW,258,2.0,2.0,82,0.00,,,0.06,Wunderground v.1.15,2013-08-26 01:13:00,
2013-08-25 19:14:00,62.5,56.9,29.86,West,266,2.0,2.0,82,0.00,,,0.06,Wunderground v.1.15,2013-08-26 01:14:00,
2013-08-25 19:15:00,62.5,56.6,29.86,West,271,2.0,2.0,81,0.00,,,0.06,Wunderground v.1.15,2013-08-26 01:15:00,
2013-08-25 19:19:00,62.6,56.3,29.86,West,264,2.0,2.0,80,0.00,,,0.06,Wunderground v.1.15,2013-08-26 01:19:00,
2013-08-25 19:20:00,62.7,56.8,29.86,West,264,1.0,1.0,81,0.00,,,0.06,Wunderground v.1.15,2013-08-26 01:20:00,
2013-08-25 19:21:00,62.7,56.4,29.86,West,264,1.0,1.0,80,0.00,,,0.06,Wunderground v.1.15,2013-08-26 01:21:00,
2013-08-25 19:26:00,62.4,57.2,29.86,West,264,1.0,2.0,83,0.00,,,0.06,Wunderground v.1.15,2013-08-26 01:26:00,
2013-08-25 19:27:00,62.3,57.4,29.86,West,264,1.0,2.0,84,0.00,,,0.06,Wunderground v.1.15,2013-08-26 01:27:00,
2013-08-25 19:28:00,62.1,57.2,29.86,West,264,1.0,2.0,84,0.00,,,0.06,Wunderground v.1.15,2013-08-26 01:28:00,
2013-08-25 19:29:00,62.1,57.2,29.86,West,264,0.0,2.0,84,0.00,,,0.06,Wunderground v.1.15,2013-08-26 01:29:00,
2013-08-25 19:33:00,61.8,57.2,29.86,West,264,0.0,0.0,85,0.00,,,0.06,Wunderground v.1.15,2013-08-26 01:33:00,
2013-08-25 19:34:00,61.7,57.1,29.86,West,264,0.0,0.0,85,0.00,,,0.06,Wunderground v.1.15,2013-08-26 01:34:00,
2013-08-25 19:35:00,61.7,57.1,29.86,West,259,0.0,1.0,85,0.00,,,0.06,Wunderground v.1.15,2013-08-26 01:35:00,
2013-08-25 19:37:00,61.7,57.1,29.86,West,260,0.0,1.0,85,0.00,,,0.06,Wunderground v.1.15,2013-08-26 01:37:00,
2013-08-25 19:42:00,61.8,56.9,29.86,West,271,1.0,2.0,84,0.00,,,0.06,Wunderground v.1.15,2013-08-26 01:42:00,
2013-08-25 19:44:00,61.9,56.7,29.87,West,278,1.0,3.0,83,0.00,,,0.06,Wunderground v.1.15,2013-08-26 01:44:00,
2013-08-25 19:46:00,62.0,56.8,29.87,West,277,1.0,3.0,83,0.00,,,0.06,Wunderground v.1.15,2013-08-26 01:46:00,
2013-08-25 19:47:00,62.1,56.9,29.86,West,277,1.0,3.0,83,0.00,,,0.06,Wunderground v.1.15,2013-08-26 01:47:00,
2013-08-25 19:49:00,62.1,56.9,29.86,WSW,258,1.0,3.0,83,0.00,,,0.06,Wunderground v.1.15,2013-08-26 01:49:00,
2013-08-25 19:50:00,62.1,57.2,29.86,West,259,1.0,1.0,84,0.00,,,0.06,Wunderground v.1.15,2013-08-26 01:50:00,
2013-08-25 19:54:00,62.0,57.1,29.86,SW,236,1.0,1.0,84,0.00,,,0.06,Wunderground v.1.15,2013-08-26 01:54:00,
2013-08-25 19:56:00,62.0,56.8,29.86,SW,226,1.0,1.0,83,0.00,,,0.06,Wunderground v.1.15,2013-08-26 01:56:00,
2013-08-25 19:58:00,62.0,57.1,29.87,SW,227,1.0,1.0,84,0.00,,,0.06,Wunderground v.1.15,2013-08-26 01:58:00,
2013-08-25 19:59:00,62.0,57.1,29.86,SW,226,1.0,1.0,84,0.00,,,0.06,Wunderground v.1.15,2013-08-26 01:59:00,
2013-08-25 20:02:00,61.9,57.7,29.86,SW,229,1.0,1.0,86,0.00,,,0.06,Wunderground v.1.15,2013-08-26 02:02:00,
2013-08-25 20:03:00,61.9,57.7,29.86,SW,229,1.0,1.0,86,0.00,,,0.06,Wunderground v.1.15,2013-08-26 02:03:00,
2013-08-25 20:04:00,61.9,57.7,29.86,SW,229,1.0,1.0,86,0.00,,,0.06,Wunderground v.1.15,2013-08-26 02:04:00,
2013-08-25 20:05:00,61.8,57.9,29.86,SW,229,1.0,1.0,87,0.00,,,0.06,Wunderground v.1.15,2013-08-26 02:05:00,
2013-08-25 20:08:00,61.6,57.4,29.86,WSW,239,0.0,1.0,86,0.00,,,0.06,Wunderground v.1.15,2013-08-26 02:08:00,
2013-08-25 20:11:00,61.5,57.3,29.86,WSW,239,0.0,0.0,86,0.00,,,0.06,Wunderground v.1.15,2013-08-26 02:11:00,
2013-08-25 20:13:00,61.3,56.8,29.86,WSW,238,0.0,2.0,85,0.00,,,0.06,Wunderground v.1.15,2013-08-26 02:13:00,
2013-08-25 20:14:00,61.3,56.8,29.86,WSW,239,0.0,2.0,85,0.00,,,0.06,Wunderground v.1.15,2013-08-26 02:14:00,
2013-08-25 20:16:00,61.3,57.1,29.86,WSW,255,1.0,2.0,86,0.00,,,0.06,Wunderground v.1.15,2013-08-26 02:16:00,
2013-08-25 20:17:00,61.2,57.3,29.86,WSW,255,1.0,2.0,87,0.00,,,0.06,Wunderground v.1.15,2013-08-26 02:17:00,
2013-08-25 20:18:00,61.2,57.3,29.86,WSW,255,1.0,2.0,87,0.00,,,0.06,Wunderground v.1.15,2013-08-26 02:18:00,
2013-08-25 20:23:00,60.9,57.3,29.87,WSW,254,0.0,1.0,88,0.00,,,0.06,Wunderground v.1.15,2013-08-26 02:23:00,
2013-08-25 20:24:00,60.9,57.0,29.87,WSW,255,0.0,1.0,87,0.00,,,0.06,Wunderground v.1.15,2013-08-26 02:24:00,
2013-08-25 20:25:00,60.8,56.9,29.87,WSW,254,0.0,1.0,87,0.00,,,0.06,Wunderground v.1.15,2013-08-26 02:25:00,
2013-08-25 20:27:00,60.7,56.8,29.87,WSW,255,0.0,1.0,87,0.00,,,0.06,Wunderground v.1.15,2013-08-26 02:27:00,
2013-08-25 20:30:00,60.8,56.9,29.87,WSW,255,0.0,1.0,87,0.00,,,0.06,Wunderground v.1.15,2013-08-26 02:30:00,
2013-08-25 20:32:00,60.8,56.9,29.87,WSW,255,0.0,1.0,87,0.00,,,0.06,Wunderground v.1.15,2013-08-26 02:32:00,
2013-08-25 20:33:00,60.8,56.9,29.87,WSW,255,0.0,1.0,87,0.00,,,0.06,Wunderground v.1.15,2013-08-26 02:33:00,
2013-08-25 20:37:00,60.6,57.0,29.87,WSW,255,0.0,1.0,88,0.00,,,0.06,Wunderground v.1.15,2013-08-26 02:37:00,
2013-08-25 20:38:00,60.5,56.9,29.87,WSW,255,0.0,1.0,88,0.00,,,0.06,Wunderground v.1.15,2013-08-26 02:38:00,
2013-08-25 20:39:00,60.5,56.6,29.87,WSW,255,0.0,1.0,87,0.00,,,0.06,Wunderground v.1.15,2013-08-26 02:39:00,
2013-08-25 20:40:00,60.4,56.8,29.87,WSW,254,0.0,1.0,88,0.00,,,0.06,Wunderground v.1.15,2013-08-26 02:40:00,
2013-08-25 20:44:00,60.3,56.7,29.87,WNW,290,0.0,2.0,88,0.00,,,0.06,Wunderground v.1.15,2013-08-26 02:44:00,
2013-08-25 20:46:00,60.4,56.5,29.87,West,279,1.0,2.0,87,0.00,,,0.06,Wunderground v.1.15,2013-08-26 02:46:00,
2013-08-25 20:47:00,60.5,56.6,29.87,West,279,1.0,2.0,87,0.00,,,0.06,Wunderground v.1.15,2013-08-26 02:47:00,
2013-08-25 20:50:00,60.6,56.4,29.87,West,281,1.0,1.0,86,0.00,,,0.06,Wunderground v.1.15,2013-08-26 02:50:00,
2013-08-25 20:51:00,60.6,56.4,29.87,West,281,1.0,1.0,86,0.00,,,0.06,Wunderground v.1.15,2013-08-26 02:51:00,
2013-08-25 20:52:00,60.5,56.3,29.87,West,281,0.0,1.0,86,0.00,,,0.06,Wunderground v.1.15,2013-08-26 02:52:00,
2013-08-25 20:53:00,60.5,56.3,29.87,West,281,0.0,1.0,86,0.00,,,0.06,Wunderground v.1.15,2013-08-26 02:53:00,
2013-08-25 20:57:00,60.4,56.5,29.87,West,278,0.0,1.0,87,0.00,,,0.06,Wunderground v.1.15,2013-08-26 02:57:00,
2013-08-25 20:58:00,60.3,56.4,29.87,West,278,0.0,1.0,87,0.00,,,0.06,Wunderground v.1.15,2013-08-26 02:58:00,
2013-08-25 21:01:00,60.3,56.4,29.88,West,278,0.0,0.0,87,0.00,,,0.06,Wunderground v.1.15,2013-08-26 03:01:00,
2013-08-25 21:03:00,60.3,56.4,29.88,SW,224,1.0,4.0,87,0.00,,,0.06,Wunderground v.1.15,2013-08-26 03:03:00,
2013-08-25 21:05:00,60.3,56.4,29.88,SW,224,1.0,4.0,87,0.00,,,0.06,Wunderground v.1.15,2013-08-26 03:05:00,
2013-08-25 21:09:00,60.4,56.2,29.88,SW,223,2.0,4.0,86,0.00,,,0.06,Wunderground v.1.15,2013-08-26 03:09:00,
2013-08-25 21:11:00,60.4,55.9,29.88,WSW,239,2.0,3.0,85,0.00,,,0.06,Wunderground v.1.15,2013-08-26 03:11:00,
2013-08-25 21:13:00,60.5,55.6,29.88,WNW,288,2.0,3.0,84,0.00,,,0.06,Wunderground v.1.15,2013-08-26 03:13:00,
2013-08-25 21:14:00,60.5,55.6,29.88,WNW,283,2.0,3.0,84,0.00,,,0.06,Wunderground v.1.15,2013-08-26 03:14:00,
2013-08-25 21:16:00,60.5,55.6,29.88,West,274,2.0,3.0,84,0.00,,,0.06,Wunderground v.1.15,2013-08-26 03:16:00,
2013-08-25 21:19:00,60.3,55.4,29.88,WNW,293,2.0,4.0,84,0.00,,,0.06,Wunderground v.1.15,2013-08-26 03:19:00,
2013-08-25 21:20:00,60.3,55.4,29.88,WSW,257,2.0,2.0,84,0.00,,,0.06,Wunderground v.1.15,2013-08-26 03:20:00,
2013-08-25 21:23:00,60.2,55.3,29.88,West,277,2.0,2.0,84,0.00,,,0.06,Wunderground v.1.15,2013-08-26 03:23:00,
2013-08-25 21:25:00,60.2,55.3,29.89,WSW,238,2.0,2.0,84,0.00,,,0.06,Wunderground v.1.15,2013-08-26 03:25:00,
2013-08-25 21:27:00,60.2,55.3,29.88,WSW,252,2.0,2.0,84,0.00,,,0.06,Wunderground v.1.15,2013-08-26 03:27:00,
2013-08-25 21:28:00,60.1,54.9,29.88,WSW,242,2.0,2.0,83,0.00,,,0.06,Wunderground v.1.15,2013-08-26 03:28:00,
2013-08-25 21:30:00,60.0,54.5,29.89,SW,214,2.0,3.0,82,0.00,,,0.06,Wunderground v.1.15,2013-08-26 03:30:00,
2013-08-25 21:31:00,60.0,54.5,29.89,SW,214,2.0,3.0,82,0.00,,,0.06,Wunderground v.1.15,2013-08-26 03:31:00,
2013-08-25 21:34:00,60.0,54.5,29.89,WSW,255,3.0,5.0,82,0.00,,,0.06,Wunderground v.1.15,2013-08-26 03:34:00,
2013-08-25 21:35:00,60.0,54.5,29.89,SW,229,3.0,5.0,82,0.00,,,0.06,Wunderground v.1.15,2013-08-26 03:35:00,
2013-08-25 21:37:00,60.0,54.5,29.89,WSW,256,3.0,5.0,82,0.00,,,0.06,Wunderground v.1.15,2013-08-26 03:37:00,
2013-08-25 21:38:00,60.0,54.5,29.89,SW,221,3.0,5.0,82,0.00,,,0.06,Wunderground v.1.15,2013-08-26 03:38:00,
2013-08-25 21:40:00,59.9,54.7,29.89,West,267,3.0,3.0,83,0.00,,,0.06,Wunderground v.1.15,2013-08-26 03:40:00,
2013-08-25 21:41:00,59.9,54.7,29.89,West,278,3.0,3.0,83,0.00,,,0.06,Wunderground v.1.15,2013-08-26 03:41:00,
2013-08-25 21:44:00,59.8,54.6,29.89,SW,217,2.0,3.0,83,0.00,,,0.06,Wunderground v.1.15,2013-08-26 03:44:00,
2013-08-25 21:45:00,59.7,54.5,29.89,SSW,199,2.0,3.0,83,0.00,,,0.06,Wunderground v.1.15,2013-08-26 03:45:00,
2013-08-25 21:46:00,59.7,54.2,29.89,SSW,200,2.0,3.0,82,0.00,,,0.06,Wunderground v.1.15,2013-08-26 03:46:00,
2013-08-25 21:48:00,59.6,54.1,29.89,SSW,211,2.0,3.0,82,0.00,,,0.06,Wunderground v.1.15,2013-08-26 03:48:00,
2013-08-25 21:51:00,59.5,54.3,29.89,SW,221,1.0,2.0,83,0.00,,,0.06,Wunderground v.1.15,2013-08-26 03:51:00,
2013-08-25 21:53:00,59.3,53.8,29.89,WNW,287,2.0,3.0,82,0.00,,,0.06,Wunderground v.1.15,2013-08-26 03:53:00,
2013-08-25 21:54:00,59.3,53.8,29.89,WNW,293,2.0,3.0,82,0.00,,,0.06,Wunderground v.1.15,2013-08-26 03:54:00,
2013-08-25 21:55:00,59.4,53.9,29.89,WNW,291,2.0,3.0,82,0.00,,,0.06,Wunderground v.1.15,2013-08-26 03:55:00,
2013-08-25 21:59:00,59.4,53.9,29.89,WSW,246,1.0,3.0,82,0.00,,,0.06,Wunderground v.1.15,2013-08-26 03:59:00,
2013-08-25 22:00:00,59.4,53.9,29.89,WSW,240,1.0,1.0,82,0.00,,,0.06,Wunderground v.1.15,2013-08-26 04:00:00,
2013-08-25 22:01:00,59.4,53.9,29.89,SW,220,2.0,3.0,82,0.00,,,0.06,Wunderground v.1.15,2013-08-26 04:01:00,
2013-08-25 22:02:00,59.5,53.7,29.89,SW,226,2.0,3.0,81,0.00,,,0.06,Wunderground v.1.15,2013-08-26 04:02:00,
2013-08-25 22:03:00,59.5,53.7,29.89,West,260,2.0,3.0,81,0.00,,,0.06,Wunderground v.1.15,2013-08-26 04:03:00,
2013-08-25 22:06:00,59.7,53.9,29.89,West,280,2.0,3.0,81,0.00,,,0.06,Wunderground v.1.15,2013-08-26 04:06:00,
2013-08-25 22:08:00,59.6,53.8,29.89,West,278,2.0,3.0,81,0.00,,,0.06,Wunderground v.1.15,2013-08-26 04:08:00,
2013-08-25 22:14:00,59.3,53.5,29.89,WNW,297,1.0,2.0,81,0.00,,,0.06,Wunderground v.1.15,2013-08-26 04:14:00,
2013-08-25 22:15:00,59.3,53.5,29.89,WNW,297,1.0,2.0,81,0.00,,,0.06,Wunderground v.1.15,2013-08-26 04:15:00,
2013-08-25 22:16:00,59.3,53.5,29.89,WNW,297,1.0,2.0,81,0.00,,,0.06,Wunderground v.1.15,2013-08-26 04:16:00,
2013-08-25 22:17:00,59.3,53.5,29.89,WNW,297,1.0,2.0,81,0.00,,,0.06,Wunderground v.1.15,2013-08-26 04:17:00,
2013-08-25 22:18:00,59.2,53.7,29.88,WNW,297,1.0,2.0,82,0.00,,,0.06,Wunderground v.1.15,2013-08-26 04:18:00,
2013-08-25 22:24:00,59.2,53.0,29.88,WSW,257,1.0,3.0,80,0.00,,,0.06,Wunderground v.1.15,2013-08-26 04:24:00,
2013-08-25 22:25:00,59.2,53.0,29.88,WSW,242,1.0,3.0,80,0.00,,,0.06,Wunderground v.1.15,2013-08-26 04:25:00,
2013-08-25 22:29:00,59.0,53.2,29.89,ESE,115,1.0,3.0,81,0.00,,,0.06,Wunderground v.1.15,2013-08-26 04:29:00,
2013-08-25 22:30:00,58.8,53.3,29.89,East,97,1.0,1.0,82,0.00,,,0.06,Wunderground v.1.15,2013-08-26 04:30:00,
2013-08-25 22:31:00,58.6,53.1,29.89,East,91,1.0,2.0,82,0.00,,,0.06,Wunderground v.1.15,2013-08-26 04:31:00,
2013-08-25 22:32:00,58.4,52.9,29.89,East,90,1.0,2.0,82,0.00,,,0.06,Wunderground v.1.15,2013-08-26 04:32:00,
2013-08-25 22:37:00,57.5,52.7,29.89,WNW,288,1.0,2.0,84,0.00,,,0.06,Wunderground v.1.15,2013-08-26 04:37:00,
2013-08-25 22:38:00,57.3,52.8,29.89,West,276,1.0,2.0,85,0.00,,,0.06,Wunderground v.1.15,2013-08-26 04:38:00,
2013-08-25 22:40:00,57.2,53.0,29.89,NNE,13,1.0,1.0,86,0.00,,,0.06,Wunderground v.1.15,2013-08-26 04:40:00,
2013-08-25 22:41:00,57.1,53.0,29.89,NNE,13,1.0,1.0,86,0.00,,,0.06,Wunderground v.1.15,2013-08-26 04:41:00,
2013-08-25 22:42:00,57.1,53.0,29.89,NNE,13,1.0,1.0,86,0.00,,,0.06,Wunderground v.1.15,2013-08-26 04:42:00,
2013-08-25 22:47:00,57.2,53.0,29.89,WNW,290,2.0,4.0,86,0.00,,,0.06,Wunderground v.1.15,2013-08-26 04:47:00,
2013-08-25 22:48:00,57.3,53.1,29.89,WNW,293,2.0,4.0,86,0.00,,,0.06,Wunderground v.1.15,2013-08-26 04:48:00,
2013-08-25 22:49:00,57.4,53.2,29.89,WNW,300,3.0,6.0,86,0.00,,,0.06,Wunderground v.1.15,2013-08-26 04:49:00,
2013-08-25 22:51:00,57.4,53.2,29.89,NW,304,4.0,5.0,86,0.00,,,0.06,Wunderground v.1.15,2013-08-26 04:51:00,
2013-08-25 22:52:00,57.3,53.1,29.89,WNW,298,4.0,5.0,86,0.00,,,0.06,Wunderground v.1.15,2013-08-26 04:52:00,
2013-08-25 22:53:00,57.2,53.0,29.89,NW,308,4.0,5.0,86,0.00,,,0.06,Wunderground v.1.15,2013-08-26 04:53:00,
2013-08-25 22:57:00,57.2,53.0,29.89,WNW,301,4.0,5.0,86,0.00,,,0.06,Wunderground v.1.15,2013-08-26 04:57:00,
2013-08-25 22:59:00,57.1,53.0,29.89,WNW,298,4.0,5.0,86,0.00,,,0.06,Wunderground v.1.15,2013-08-26 04:59:00,
2013-08-25 23:00:00,56.9,52.8,29.89,West,281,4.0,5.0,86,0.00,,,0.06,Wunderground v.1.15,2013-08-26 05:00:00,
2013-08-25 23:01:00,56.8,52.7,29.89,NW,308,4.0,6.0,86,0.00,,,0.06,Wunderground v.1.15,2013-08-26 05:01:00,
2013-08-25 23:05:00,56.6,52.8,29.89,NW,304,4.0,6.0,87,0.00,,,0.06,Wunderground v.1.15,2013-08-26 05:05:00,
2013-08-25 23:07:00,56.5,52.7,29.89,NW,304,4.0,6.0,87,0.00,,,0.06,Wunderground v.1.15,2013-08-26 05:07:00,
2013-08-25 23:08:00,56.5,52.7,29.89,NW,304,3.0,6.0,87,0.00,,,0.06,Wunderground v.1.15,2013-08-26 05:08:00,
2013-08-25 23:10:00,56.4,52.6,29.89,NW,304,2.0,2.0,87,0.00,,,0.06,Wunderground v.1.15,2013-08-26 05:10:00,
2013-08-25 23:13:00,56.5,52.7,29.89,WNW,297,1.0,2.0,87,0.00,,,0.06,Wunderground v.1.15,2013-08-26 05:13:00,
2013-08-25 23:14:00,56.5,52.7,29.89,WNW,296,1.0,2.0,87,0.00,,,0.06,Wunderground v.1.15,2013-08-26 05:14:00,
2013-08-25 23:15:00,56.5,52.7,29.89,WNW,298,0.0,2.0,87,0.00,,,0.06,Wunderground v.1.15,2013-08-26 05:15:00,
2013-08-25 23:17:00,56.5,52.7,29.89,WNW,298,0.0,2.0,87,0.00,,,0.06,Wunderground v.1.15,2013-08-26 05:17:00,
2013-08-25 23:20:00,56.5,52.7,29.89,WNW,298,0.0,0.0,87,0.00,,,0.06,Wunderground v.1.15,2013-08-26 05:20:00,
2013-08-25 23:21:00,56.5,52.7,29.89,WNW,298,0.0,0.0,87,0.00,,,0.06,Wunderground v.1.15,2013-08-26 05:21:00,
2013-08-25 23:22:00,56.4,52.6,29.89,WNW,297,0.0,0.0,87,0.00,,,0.06,Wunderground v.1.15,2013-08-26 05:22:00,
2013-08-25 23:23:00,56.4,52.6,29.89,SW,232,0.0,1.0,87,0.00,,,0.06,Wunderground v.1.15,2013-08-26 05:23:00,
2013-08-25 23:27:00,56.3,52.5,29.89,West,262,0.0,1.0,87,0.00,,,0.06,Wunderground v.1.15,2013-08-26 05:27:00,
2013-08-25 23:28:00,56.2,52.4,29.89,WSW,249,0.0,1.0,87,0.00,,,0.06,Wunderground v.1.15,2013-08-26 05:28:00,
2013-08-25 23:29:00,56.3,52.5,29.89,West,259,0.0,1.0,87,0.00,,,0.06,Wunderground v.1.15,2013-08-26 05:29:00,
2013-08-25 23:31:00,56.3,52.5,29.89,WNW,283,1.0,3.0,87,0.00,,,0.06,Wunderground v.1.15,2013-08-26 05:31:00,
2013-08-25 23:33:00,56.5,52.4,29.89,WSW,252,1.0,3.0,86,0.00,,,0.06,Wunderground v.1.15,2013-08-26 05:33:00,
2013-08-25 23:34:00,56.5,52.4,29.89,SW,228,1.0,3.0,86,0.00,,,0.06,Wunderground v.1.15,2013-08-26 05:34:00,
2013-08-25 23:36:00,56.6,52.1,29.89,WSW,255,2.0,3.0,85,0.00,,,0.06,Wunderground v.1.15,2013-08-26 05:36:00,
2013-08-25 23:37:00,56.7,52.2,29.89,WSW,249,2.0,3.0,85,0.00,,,0.06,Wunderground v.1.15,2013-08-26 05:37:00,
2013-08-25 23:42:00,56.7,52.2,29.89,WSW,250,1.0,2.0,85,0.00,,,0.06,Wunderground v.1.15,2013-08-26 05:42:00,
2013-08-25 23:43:00,56.6,52.1,29.89,WSW,250,1.0,2.0,85,0.00,,,0.06,Wunderground v.1.15,2013-08-26 05:43:00,
2013-08-25 23:45:00,56.5,52.0,29.89,WSW,250,0.0,2.0,85,0.00,,,0.06,Wunderground v.1.15,2013-08-26 05:45:00,
2013-08-25 23:47:00,56.3,51.8,29.89,WSW,250,0.0,2.0,85,0.00,,,0.06,Wunderground v.1.15,2013-08-26 05:47:00,
2013-08-25 23:48:00,56.2,51.7,29.89,WSW,250,0.0,2.0,85,0.00,,,0.06,Wunderground v.1.15,2013-08-26 05:48:00,
2013-08-25 23:50:00,56.1,52.0,29.89,WSW,250,0.0,0.0,86,0.00,,,0.06,Wunderground v.1.15,2013-08-26 05:50:00,
2013-08-25 23:52:00,55.9,52.1,29.89,WSW,250,0.0,0.0,87,0.00,,,0.06,Wunderground v.1.15,2013-08-26 05:52:00,
2013-08-25 23:53:00,55.7,51.9,29.89,WSW,250,0.0,0.0,87,0.00,,,0.06,Wunderground v.1.15,2013-08-26 05:53:00,
2013-08-25 23:54:00,55.6,51.8,29.90,West,263,0.0,0.0,87,0.00,,,0.06,Wunderground v.1.15,2013-08-26 05:54:00,
2013-08-25 23:55:00,55.5,51.7,29.89,West,263,0.0,1.0,87,0.00,,,0.06,Wunderground v.1.15,2013-08-26 05:55:00,
2013-08-25 23:57:00,55.5,51.7,29.89,WSW,239,0.0,1.0,87,0.00,,,0.06,Wunderground v.1.15,2013-08-26 05:57:00,